<?xml version="1.0" encoding="UTF-8" standalone="no" ?>
<gpx xmlns="http://www.topografix.com/GPX/1/1" xmlns:xsi="http://www.w3.org/2001/XMLSchema-instance" xsi:schemaLocation="http://www.topografix.com/GPX/1/1 http://www.topografix.com/GPX/1/1/gpx.xsd" version="1.1" creator="VisuGPX - https://www.visugpx.com">
  <metadata>
    <name>Les Monts, Les Endroits</name>
  </metadata>
  <trk>
    <name><![CDATA[Les Monts, Les Endroits]]></name>
    <extensions>
      <line xmlns="http://www.topografix.com/GPX/gpx_style/0/2">
        <color>0000FF</color>
        <width>4</width>
      </line>
    </extensions>
    <trkseg>
      <trkpt lat="47.07093" lon="6.75648">
        <ele>1079.53</ele>
        <time>2021-07-03T07:50:00.000Z</time>
      </trkpt>
      <trkpt lat="47.07092" lon="6.75647">
        <ele>1079.53</ele>
        <time>2021-07-03T07:50:00.947Z</time>
      </trkpt>
      <trkpt lat="47.07094" lon="6.75648">
        <ele>1079.64</ele>
        <time>2021-07-03T07:50:03.879Z</time>
      </trkpt>
      <trkpt lat="47.07159" lon="6.75695">
        <ele>1084.0600000069</ele>
        <time>2021-07-03T07:51:50.774Z</time>
      </trkpt>
      <trkpt lat="47.07185" lon="6.75714">
        <ele>1086.5</ele>
        <time>2021-07-03T07:52:41.934Z</time>
      </trkpt>
      <trkpt lat="47.07198" lon="6.75725">
        <ele>1086.86</ele>
        <time>2021-07-03T07:52:56.990Z</time>
      </trkpt>
      <trkpt lat="47.07256" lon="6.75768">
        <ele>1090.4700000112</ele>
        <time>2021-07-03T07:54:29.300Z</time>
      </trkpt>
      <trkpt lat="47.07274" lon="6.75782">
        <ele>1091.76</ele>
        <time>2021-07-03T07:54:59.854Z</time>
      </trkpt>
      <trkpt lat="47.07308" lon="6.75809">
        <ele>1093.57</ele>
        <time>2021-07-03T07:55:51.692Z</time>
      </trkpt>
      <trkpt lat="47.0732" lon="6.75815">
        <ele>1093.9999999993</ele>
        <time>2021-07-03T07:56:06.090Z</time>
      </trkpt>
      <trkpt lat="47.07401" lon="6.75848">
        <ele>1099.59</ele>
        <time>2021-07-03T07:58:15.114Z</time>
      </trkpt>
      <trkpt lat="47.07458" lon="6.7587">
        <ele>1105.8900000329</ele>
        <time>2021-07-03T08:00:23.748Z</time>
      </trkpt>
      <trkpt lat="47.07476" lon="6.75877">
        <ele>1108.23</ele>
        <time>2021-07-03T08:01:14.303Z</time>
      </trkpt>
      <trkpt lat="47.07481" lon="6.75877">
        <ele>1108.8</ele>
        <time>2021-07-03T08:01:26.091Z</time>
      </trkpt>
      <trkpt lat="47.07489" lon="6.75876">
        <ele>1109.4200000585</ele>
        <time>2021-07-03T08:01:39.468Z</time>
      </trkpt>
      <trkpt lat="47.07492" lon="6.75875">
        <ele>1109.8299999798</ele>
        <time>2021-07-03T08:01:48.737Z</time>
      </trkpt>
      <trkpt lat="47.075" lon="6.75872">
        <ele>1110.3899999907</ele>
        <time>2021-07-03T08:02:01.535Z</time>
      </trkpt>
      <trkpt lat="47.07519" lon="6.75863">
        <ele>1112.5200000071</ele>
        <time>2021-07-03T08:02:45.016Z</time>
      </trkpt>
      <trkpt lat="47.07534" lon="6.75856">
        <ele>1112.92</ele>
        <time>2021-07-03T08:03:01.077Z</time>
      </trkpt>
      <trkpt lat="47.0754" lon="6.75851">
        <ele>1113.7200000098</ele>
        <time>2021-07-03T08:03:17.710Z</time>
      </trkpt>
      <trkpt lat="47.07544" lon="6.75847">
        <ele>1114.52</ele>
        <time>2021-07-03T08:03:32.324Z</time>
      </trkpt>
      <trkpt lat="47.07547" lon="6.75839">
        <ele>1115.3200000022</ele>
        <time>2021-07-03T08:03:49.886Z</time>
      </trkpt>
      <trkpt lat="47.07549" lon="6.75832">
        <ele>1115.7199999779</ele>
        <time>2021-07-03T08:03:58.510Z</time>
      </trkpt>
      <trkpt lat="47.07549" lon="6.75823">
        <ele>1116.92</ele>
        <time>2021-07-03T08:04:17.019Z</time>
      </trkpt>
      <trkpt lat="47.07546" lon="6.75802">
        <ele>1118.5199999887</ele>
        <time>2021-07-03T08:04:49.802Z</time>
      </trkpt>
      <trkpt lat="47.07539" lon="6.75768">
        <ele>1122.3100000254</ele>
        <time>2021-07-03T08:06:02.851Z</time>
      </trkpt>
      <trkpt lat="47.07538" lon="6.75755">
        <ele>1123.310000032</ele>
        <time>2021-07-03T08:06:23.447Z</time>
      </trkpt>
      <trkpt lat="47.07539" lon="6.75744">
        <ele>1124.19</ele>
        <time>2021-07-03T08:06:41.769Z</time>
      </trkpt>
      <trkpt lat="47.07541" lon="6.75732">
        <ele>1125.4600000611</ele>
        <time>2021-07-03T08:07:07.176Z</time>
      </trkpt>
      <trkpt lat="47.07544" lon="6.75724">
        <ele>1126.19</ele>
        <time>2021-07-03T08:07:22.419Z</time>
      </trkpt>
      <trkpt lat="47.07548" lon="6.75718">
        <ele>1126.8000000368</ele>
        <time>2021-07-03T08:07:34.871Z</time>
      </trkpt>
      <trkpt lat="47.07552" lon="6.75713">
        <ele>1127.2199999577</ele>
        <time>2021-07-03T08:07:43.819Z</time>
      </trkpt>
      <trkpt lat="47.07558" lon="6.75707">
        <ele>1128.1199999991</ele>
        <time>2021-07-03T08:08:03.105Z</time>
      </trkpt>
      <trkpt lat="47.07566" lon="6.75702">
        <ele>1129.04</ele>
        <time>2021-07-03T08:08:21.869Z</time>
      </trkpt>
      <trkpt lat="47.07576" lon="6.75698">
        <ele>1130.3700000097</ele>
        <time>2021-07-03T08:08:51.015Z</time>
      </trkpt>
      <trkpt lat="47.07583" lon="6.757">
        <ele>1131.6200000301</ele>
        <time>2021-07-03T08:09:12.550Z</time>
      </trkpt>
      <trkpt lat="47.07589" lon="6.75702">
        <ele>1132.5800000866</ele>
        <time>2021-07-03T08:09:31.130Z</time>
      </trkpt>
      <trkpt lat="47.07594" lon="6.75705">
        <ele>1134.67</ele>
        <time>2021-07-03T08:09:47.441Z</time>
      </trkpt>
      <trkpt lat="47.07594" lon="6.75705">
        <ele>1134.67</ele>
        <time>2021-07-03T08:09:47.441Z</time>
      </trkpt>
      <trkpt lat="47.07594" lon="6.75705">
        <ele>1134.67</ele>
        <time>2021-07-03T08:09:47.441Z</time>
      </trkpt>
      <trkpt lat="47.07594" lon="6.75705">
        <ele>1134.67</ele>
        <time>2021-07-03T08:09:47.441Z</time>
      </trkpt>
      <trkpt lat="47.07624" lon="6.75723">
        <ele>1136.7600000042</ele>
        <time>2021-07-03T08:10:36.460Z</time>
      </trkpt>
      <trkpt lat="47.07631" lon="6.75727">
        <ele>1137.3800000083</ele>
        <time>2021-07-03T08:10:49.529Z</time>
      </trkpt>
      <trkpt lat="47.07637" lon="6.75728">
        <ele>1137.5999999926</ele>
        <time>2021-07-03T08:10:56.625Z</time>
      </trkpt>
      <trkpt lat="47.07663" lon="6.75727">
        <ele>1139.73</ele>
        <time>2021-07-03T08:11:41.636Z</time>
      </trkpt>
      <trkpt lat="47.07673" lon="6.75722">
        <ele>1140.44</ele>
        <time>2021-07-03T08:11:57.936Z</time>
      </trkpt>
      <trkpt lat="47.07698" lon="6.75687">
        <ele>1144.58</ele>
        <time>2021-07-03T08:13:25.131Z</time>
      </trkpt>
      <trkpt lat="47.07712" lon="6.75669">
        <ele>1147.0800000349</ele>
        <time>2021-07-03T08:14:21.324Z</time>
      </trkpt>
      <trkpt lat="47.07714" lon="6.75667">
        <ele>1147.4699999588</ele>
        <time>2021-07-03T08:14:28.631Z</time>
      </trkpt>
      <trkpt lat="47.07717" lon="6.75666">
        <ele>1147.6700000059</ele>
        <time>2021-07-03T08:14:33.302Z</time>
      </trkpt>
      <trkpt lat="47.07719" lon="6.75666">
        <ele>1147.8599999599</ele>
        <time>2021-07-03T08:14:37.185Z</time>
      </trkpt>
      <trkpt lat="47.07721" lon="6.75666">
        <ele>1148.0499999989</ele>
        <time>2021-07-03T08:14:41.068Z</time>
      </trkpt>
      <trkpt lat="47.07723" lon="6.75668">
        <ele>1148.2299999816</ele>
        <time>2021-07-03T08:14:45.010Z</time>
      </trkpt>
      <trkpt lat="47.07725" lon="6.75671">
        <ele>1148.4300000109</ele>
        <time>2021-07-03T08:14:49.513Z</time>
      </trkpt>
      <trkpt lat="47.07726" lon="6.75674">
        <ele>1148.6699999511</ele>
        <time>2021-07-03T08:14:54.407Z</time>
      </trkpt>
      <trkpt lat="47.07726" lon="6.75678">
        <ele>1148.94</ele>
        <time>2021-07-03T08:14:59.905Z</time>
      </trkpt>
      <trkpt lat="47.07726" lon="6.75681">
        <ele>1149.1999999931</ele>
        <time>2021-07-03T08:15:05.570Z</time>
      </trkpt>
      <trkpt lat="47.07724" lon="6.75693">
        <ele>1150.11</ele>
        <time>2021-07-03T08:15:24.179Z</time>
      </trkpt>
      <trkpt lat="47.07723" lon="6.75698">
        <ele>1150.53</ele>
        <time>2021-07-03T08:15:32.977Z</time>
      </trkpt>
      <trkpt lat="47.07723" lon="6.75705">
        <ele>1151.12</ele>
        <time>2021-07-03T08:15:45.608Z</time>
      </trkpt>
      <trkpt lat="47.07723" lon="6.75709">
        <ele>1151.6</ele>
        <time>2021-07-03T08:15:53.834Z</time>
      </trkpt>
      <trkpt lat="47.07723" lon="6.75715">
        <ele>1152.1799999516</ele>
        <time>2021-07-03T08:16:06.173Z</time>
      </trkpt>
      <trkpt lat="47.07724" lon="6.75721">
        <ele>1152.85</ele>
        <time>2021-07-03T08:16:18.876Z</time>
      </trkpt>
      <trkpt lat="47.07727" lon="6.7573">
        <ele>1153.91</ele>
        <time>2021-07-03T08:16:39.483Z</time>
      </trkpt>
      <trkpt lat="47.0773" lon="6.75738">
        <ele>1155.0099999649</ele>
        <time>2021-07-03T08:16:58.264Z</time>
      </trkpt>
      <trkpt lat="47.07759" lon="6.75793">
        <ele>1160.26</ele>
        <time>2021-07-03T08:18:46.086Z</time>
      </trkpt>
      <trkpt lat="47.07775" lon="6.75829">
        <ele>1163.57</ele>
        <time>2021-07-03T08:19:54.384Z</time>
      </trkpt>
      <trkpt lat="47.07785" lon="6.75849">
        <ele>1165.83000004</ele>
        <time>2021-07-03T08:20:45.409Z</time>
      </trkpt>
      <trkpt lat="47.07792" lon="6.75861">
        <ele>1166.99</ele>
        <time>2021-07-03T08:21:09.120Z</time>
      </trkpt>
      <trkpt lat="47.078" lon="6.75872">
        <ele>1168.4599999547</ele>
        <time>2021-07-03T08:21:42.216Z</time>
      </trkpt>
      <trkpt lat="47.07809" lon="6.75882">
        <ele>1169.6800000488</ele>
        <time>2021-07-03T08:22:07.162Z</time>
      </trkpt>
      <trkpt lat="47.07814" lon="6.75885">
        <ele>1170.2900000196</ele>
        <time>2021-07-03T08:22:19.745Z</time>
      </trkpt>
      <trkpt lat="47.07819" lon="6.75884">
        <ele>1170.78</ele>
        <time>2021-07-03T08:22:29.737Z</time>
      </trkpt>
      <trkpt lat="47.07823" lon="6.75882">
        <ele>1171.51</ele>
        <time>2021-07-03T08:22:42.497Z</time>
      </trkpt>
      <trkpt lat="47.07826" lon="6.7588">
        <ele>1172.3</ele>
        <time>2021-07-03T08:22:52.446Z</time>
      </trkpt>
      <trkpt lat="47.0783" lon="6.75875">
        <ele>1172.8700000009</ele>
        <time>2021-07-03T08:23:04.108Z</time>
      </trkpt>
      <trkpt lat="47.07832" lon="6.75869">
        <ele>1173.43</ele>
        <time>2021-07-03T08:23:16.060Z</time>
      </trkpt>
      <trkpt lat="47.07833" lon="6.75861">
        <ele>1174.07</ele>
        <time>2021-07-03T08:23:29.351Z</time>
      </trkpt>
      <trkpt lat="47.07836" lon="6.75837">
        <ele>1175.36</ele>
        <time>2021-07-03T08:23:57.127Z</time>
      </trkpt>
      <trkpt lat="47.07836" lon="6.75833">
        <ele>1175.6099999997</ele>
        <time>2021-07-03T08:24:02.262Z</time>
      </trkpt>
      <trkpt lat="47.07842" lon="6.75748">
        <ele>1180.82</ele>
        <time>2021-07-03T08:25:49.772Z</time>
      </trkpt>
      <trkpt lat="47.07844" lon="6.75731">
        <ele>1182.28</ele>
        <time>2021-07-03T08:26:21.101Z</time>
      </trkpt>
      <trkpt lat="47.07846" lon="6.75715">
        <ele>1183.58</ele>
        <time>2021-07-03T08:26:48.244Z</time>
      </trkpt>
      <trkpt lat="47.0785" lon="6.75702">
        <ele>1184.74</ele>
        <time>2021-07-03T08:27:12.636Z</time>
      </trkpt>
      <trkpt lat="47.07855" lon="6.75684">
        <ele>1185.59</ele>
        <time>2021-07-03T08:27:32.619Z</time>
      </trkpt>
      <trkpt lat="47.07856" lon="6.75685">
        <ele>1185.59</ele>
        <time>2021-07-03T08:27:33.566Z</time>
      </trkpt>
      <trkpt lat="47.07856" lon="6.75685">
        <ele>1185.59</ele>
        <time>2021-07-03T08:27:33.566Z</time>
      </trkpt>
      <trkpt lat="47.07855" lon="6.75684">
        <ele>1185.59</ele>
        <time>2021-07-03T08:27:34.513Z</time>
      </trkpt>
      <trkpt lat="47.07856" lon="6.75681">
        <ele>1186.44</ele>
        <time>2021-07-03T08:27:41.382Z</time>
      </trkpt>
      <trkpt lat="47.07864" lon="6.75658">
        <ele>1187.7800000047</ele>
        <time>2021-07-03T08:28:10.446Z</time>
      </trkpt>
      <trkpt lat="47.07869" lon="6.75646">
        <ele>1188.4100000478</ele>
        <time>2021-07-03T08:28:25.071Z</time>
      </trkpt>
      <trkpt lat="47.07872" lon="6.7564">
        <ele>1189.1499999561</ele>
        <time>2021-07-03T08:28:40.379Z</time>
      </trkpt>
      <trkpt lat="47.0788" lon="6.75632">
        <ele>1190.21</ele>
        <time>2021-07-03T08:29:02.099Z</time>
      </trkpt>
      <trkpt lat="47.07923" lon="6.75597">
        <ele>1196.6800000045</ele>
        <time>2021-07-03T08:31:26.731Z</time>
      </trkpt>
      <trkpt lat="47.07934" lon="6.75587">
        <ele>1197.78</ele>
        <time>2021-07-03T08:31:49.717Z</time>
      </trkpt>
      <trkpt lat="47.07957" lon="6.75558">
        <ele>1201.99</ele>
        <time>2021-07-03T08:33:21.262Z</time>
      </trkpt>
      <trkpt lat="47.07964" lon="6.75553">
        <ele>1203</ele>
        <time>2021-07-03T08:33:43.580Z</time>
      </trkpt>
      <trkpt lat="47.07973" lon="6.75549">
        <ele>1204.18</ele>
        <time>2021-07-03T08:34:09.051Z</time>
      </trkpt>
      <trkpt lat="47.07983" lon="6.75543">
        <ele>1205.8299999374</ele>
        <time>2021-07-03T08:34:41.673Z</time>
      </trkpt>
      <trkpt lat="47.07993" lon="6.75536">
        <ele>1207.5700000518</ele>
        <time>2021-07-03T08:35:15.126Z</time>
      </trkpt>
      <trkpt lat="47.08001" lon="6.75528">
        <ele>1209.0900000635</ele>
        <time>2021-07-03T08:35:44.354Z</time>
      </trkpt>
      <trkpt lat="47.08006" lon="6.75519">
        <ele>1210.4499999556</ele>
        <time>2021-07-03T08:36:08.239Z</time>
      </trkpt>
      <trkpt lat="47.08011" lon="6.75507">
        <ele>1211.71</ele>
        <time>2021-07-03T08:36:36.392Z</time>
      </trkpt>
      <trkpt lat="47.08014" lon="6.75497">
        <ele>1212.81</ele>
        <time>2021-07-03T08:36:58.863Z</time>
      </trkpt>
      <trkpt lat="47.08016" lon="6.75485">
        <ele>1213.97</ele>
        <time>2021-07-03T08:37:24.268Z</time>
      </trkpt>
      <trkpt lat="47.08017" lon="6.75468">
        <ele>1215.4000000098</ele>
        <time>2021-07-03T08:37:54.785Z</time>
      </trkpt>
      <trkpt lat="47.0802" lon="6.75457">
        <ele>1216.2900000031</ele>
        <time>2021-07-03T08:38:13.045Z</time>
      </trkpt>
      <trkpt lat="47.08022" lon="6.7545">
        <ele>1216.7299999735</ele>
        <time>2021-07-03T08:38:22.237Z</time>
      </trkpt>
      <trkpt lat="47.08026" lon="6.75445">
        <ele>1217.1599999977</ele>
        <time>2021-07-03T08:38:31.325Z</time>
      </trkpt>
      <trkpt lat="47.08033" lon="6.75442">
        <ele>1217.38</ele>
        <time>2021-07-03T08:38:39.214Z</time>
      </trkpt>
      <trkpt lat="47.08039" lon="6.75442">
        <ele>1217.77</ele>
        <time>2021-07-03T08:38:48.323Z</time>
      </trkpt>
      <trkpt lat="47.08045" lon="6.75445">
        <ele>1218.04</ele>
        <time>2021-07-03T08:38:56.460Z</time>
      </trkpt>
      <trkpt lat="47.08051" lon="6.7545">
        <ele>1218.4499999958</ele>
        <time>2021-07-03T08:39:06.527Z</time>
      </trkpt>
      <trkpt lat="47.0808" lon="6.7548">
        <ele>1219.9300000147</ele>
        <time>2021-07-03T08:39:51.477Z</time>
      </trkpt>
      <trkpt lat="47.08091" lon="6.7549">
        <ele>1220.68</ele>
        <time>2021-07-03T08:40:10.164Z</time>
      </trkpt>
      <trkpt lat="47.08102" lon="6.75496">
        <ele>1221.12</ele>
        <time>2021-07-03T08:40:24.157Z</time>
      </trkpt>
      <trkpt lat="47.08113" lon="6.75498">
        <ele>1221.08</ele>
        <time>2021-07-03T08:40:32.380Z</time>
      </trkpt>
      <trkpt lat="47.0812" lon="6.75498">
        <ele>1221.1</ele>
        <time>2021-07-03T08:40:38.008Z</time>
      </trkpt>
      <trkpt lat="47.08121" lon="6.75498">
        <ele>1221.1</ele>
        <time>2021-07-03T08:40:38.790Z</time>
      </trkpt>
      <trkpt lat="47.08121" lon="6.75498">
        <ele>1221.1</ele>
        <time>2021-07-03T08:40:38.790Z</time>
      </trkpt>
      <trkpt lat="47.0812" lon="6.75498">
        <ele>1221.1</ele>
        <time>2021-07-03T08:40:39.573Z</time>
      </trkpt>
      <trkpt lat="47.08124" lon="6.75498">
        <ele>1221.1199999992</ele>
        <time>2021-07-03T08:40:42.855Z</time>
      </trkpt>
      <trkpt lat="47.08135" lon="6.75496">
        <ele>1221.23</ele>
        <time>2021-07-03T08:40:52.401Z</time>
      </trkpt>
      <trkpt lat="47.08144" lon="6.75492">
        <ele>1221.21</ele>
        <time>2021-07-03T08:40:59.530Z</time>
      </trkpt>
      <trkpt lat="47.08153" lon="6.75487">
        <ele>1221.16</ele>
        <time>2021-07-03T08:41:06.508Z</time>
      </trkpt>
      <trkpt lat="47.08162" lon="6.75479">
        <ele>1221.3999999994</ele>
        <time>2021-07-03T08:41:16.920Z</time>
      </trkpt>
      <trkpt lat="47.08196" lon="6.75453">
        <ele>1224.4000000494</ele>
        <time>2021-07-03T08:42:21.323Z</time>
      </trkpt>
      <trkpt lat="47.08204" lon="6.75447">
        <ele>1225.5799999998</ele>
        <time>2021-07-03T08:42:47.660Z</time>
      </trkpt>
      <trkpt lat="47.08219" lon="6.75439">
        <ele>1227.1000000164</ele>
        <time>2021-07-03T08:43:18.712Z</time>
      </trkpt>
      <trkpt lat="47.08228" lon="6.75435">
        <ele>1227.84</ele>
        <time>2021-07-03T08:43:34.566Z</time>
      </trkpt>
      <trkpt lat="47.08236" lon="6.75433">
        <ele>1228.51</ele>
        <time>2021-07-03T08:43:48.688Z</time>
      </trkpt>
      <trkpt lat="47.08247" lon="6.75431">
        <ele>1229.7399999673</ele>
        <time>2021-07-03T08:44:13.956Z</time>
      </trkpt>
      <trkpt lat="47.08259" lon="6.75432">
        <ele>1230.4899999912</ele>
        <time>2021-07-03T08:44:31.865Z</time>
      </trkpt>
      <trkpt lat="47.08281" lon="6.75436">
        <ele>1232.09</ele>
        <time>2021-07-03T08:45:07.371Z</time>
      </trkpt>
      <trkpt lat="47.08303" lon="6.75441">
        <ele>1232.7799999988</ele>
        <time>2021-07-03T08:45:31.710Z</time>
      </trkpt>
      <trkpt lat="47.08321" lon="6.75446">
        <ele>1232.5900000029</ele>
        <time>2021-07-03T08:45:37.373Z</time>
      </trkpt>
      <trkpt lat="47.08394" lon="6.75463">
        <ele>1231.65</ele>
        <time>2021-07-03T08:45:59.536Z</time>
      </trkpt>
      <trkpt lat="47.08405" lon="6.75467">
        <ele>1231.4000000013</ele>
        <time>2021-07-03T08:46:02.571Z</time>
      </trkpt>
      <trkpt lat="47.08416" lon="6.75471">
        <ele>1231.45</ele>
        <time>2021-07-03T08:46:11.816Z</time>
      </trkpt>
      <trkpt lat="47.08445" lon="6.75486">
        <ele>1230.83</ele>
        <time>2021-07-03T08:46:20.232Z</time>
      </trkpt>
      <trkpt lat="47.08447" lon="6.75488">
        <ele>1230.75</ele>
        <time>2021-07-03T08:46:20.807Z</time>
      </trkpt>
      <trkpt lat="47.08451" lon="6.75491">
        <ele>1231.01</ele>
        <time>2021-07-03T08:46:27.291Z</time>
      </trkpt>
      <trkpt lat="47.08455" lon="6.75496">
        <ele>1231.54</ele>
        <time>2021-07-03T08:46:38.080Z</time>
      </trkpt>
      <trkpt lat="47.08458" lon="6.75501">
        <ele>1231.8099999823</ele>
        <time>2021-07-03T08:46:44.704Z</time>
      </trkpt>
      <trkpt lat="47.08465" lon="6.75513">
        <ele>1232.54</ele>
        <time>2021-07-03T08:47:01.384Z</time>
      </trkpt>
      <trkpt lat="47.08471" lon="6.75525">
        <ele>1233.1799999982</ele>
        <time>2021-07-03T08:47:16.568Z</time>
      </trkpt>
      <trkpt lat="47.08485" lon="6.75544">
        <ele>1234.02</ele>
        <time>2021-07-03T08:47:41.593Z</time>
      </trkpt>
      <trkpt lat="47.08489" lon="6.75549">
        <ele>1234.15</ele>
        <time>2021-07-03T08:47:46.911Z</time>
      </trkpt>
      <trkpt lat="47.08494" lon="6.75556">
        <ele>1234.3099999899</ele>
        <time>2021-07-03T08:47:53.776Z</time>
      </trkpt>
      <trkpt lat="47.08506" lon="6.75572">
        <ele>1235</ele>
        <time>2021-07-03T08:48:14.576Z</time>
      </trkpt>
      <trkpt lat="47.08515" lon="6.75585">
        <ele>1235.54</ele>
        <time>2021-07-03T08:48:30.827Z</time>
      </trkpt>
      <trkpt lat="47.08518" lon="6.75588">
        <ele>1235.91</ele>
        <time>2021-07-03T08:48:38.359Z</time>
      </trkpt>
      <trkpt lat="47.08518" lon="6.75589">
        <ele>1235.91</ele>
        <time>2021-07-03T08:48:38.892Z</time>
      </trkpt>
      <trkpt lat="47.08518" lon="6.75588">
        <ele>1235.91</ele>
        <time>2021-07-03T08:48:39.425Z</time>
      </trkpt>
      <trkpt lat="47.08528" lon="6.75602">
        <ele>1236.2699999971</ele>
        <time>2021-07-03T08:48:53.632Z</time>
      </trkpt>
      <trkpt lat="47.08539" lon="6.75614">
        <ele>1236.84</ele>
        <time>2021-07-03T08:49:10.964Z</time>
      </trkpt>
      <trkpt lat="47.08562" lon="6.7564">
        <ele>1238.3</ele>
        <time>2021-07-03T08:49:50.776Z</time>
      </trkpt>
      <trkpt lat="47.08573" lon="6.7565">
        <ele>1238.6799999976</ele>
        <time>2021-07-03T08:50:04.633Z</time>
      </trkpt>
      <trkpt lat="47.08587" lon="6.75663">
        <ele>1239.1400000172</ele>
        <time>2021-07-03T08:50:22.025Z</time>
      </trkpt>
      <trkpt lat="47.08594" lon="6.75669">
        <ele>1239.42000001</ele>
        <time>2021-07-03T08:50:31.308Z</time>
      </trkpt>
      <trkpt lat="47.08597" lon="6.75672">
        <ele>1239.5199999891</ele>
        <time>2021-07-03T08:50:35.109Z</time>
      </trkpt>
      <trkpt lat="47.08607" lon="6.75679">
        <ele>1239.4099999956</ele>
        <time>2021-07-03T08:50:38.554Z</time>
      </trkpt>
      <trkpt lat="47.08614" lon="6.75684">
        <ele>1239.3100000006</ele>
        <time>2021-07-03T08:50:40.884Z</time>
      </trkpt>
      <trkpt lat="47.08633" lon="6.75697">
        <ele>1238.2900000106</ele>
        <time>2021-07-03T08:50:45.186Z</time>
      </trkpt>
      <trkpt lat="47.08657" lon="6.7571">
        <ele>1236.52</ele>
        <time>2021-07-03T08:50:50.135Z</time>
      </trkpt>
      <trkpt lat="47.08673" lon="6.7572">
        <ele>1235.2899999815</ele>
        <time>2021-07-03T08:50:53.499Z</time>
      </trkpt>
      <trkpt lat="47.08682" lon="6.75726">
        <ele>1234.81</ele>
        <time>2021-07-03T08:50:55.530Z</time>
      </trkpt>
      <trkpt lat="47.08683" lon="6.75728">
        <ele>1234.67</ele>
        <time>2021-07-03T08:50:55.856Z</time>
      </trkpt>
      <trkpt lat="47.08688" lon="6.75734">
        <ele>1234.2300000233</ele>
        <time>2021-07-03T08:50:57.106Z</time>
      </trkpt>
      <trkpt lat="47.08698" lon="6.75749">
        <ele>1233.46</ele>
        <time>2021-07-03T08:50:59.911Z</time>
      </trkpt>
      <trkpt lat="47.08721" lon="6.75788">
        <ele>1231.09</ele>
        <time>2021-07-03T08:51:06.708Z</time>
      </trkpt>
      <trkpt lat="47.08729" lon="6.75799">
        <ele>1230.68</ele>
        <time>2021-07-03T08:51:09.204Z</time>
      </trkpt>
      <trkpt lat="47.08738" lon="6.75808">
        <ele>1230.4699999951</ele>
        <time>2021-07-03T08:51:12.215Z</time>
      </trkpt>
      <trkpt lat="47.08746" lon="6.75815">
        <ele>1230.32</ele>
        <time>2021-07-03T08:51:14.891Z</time>
      </trkpt>
      <trkpt lat="47.08751" lon="6.75819">
        <ele>1230.23</ele>
        <time>2021-07-03T08:51:16.533Z</time>
      </trkpt>
      <trkpt lat="47.08796" lon="6.7585">
        <ele>1228.31</ele>
        <time>2021-07-03T08:51:27.720Z</time>
      </trkpt>
      <trkpt lat="47.08836" lon="6.75878">
        <ele>1226.5999999887</ele>
        <time>2021-07-03T08:51:37.697Z</time>
      </trkpt>
      <trkpt lat="47.08853" lon="6.75889">
        <ele>1225.9999999929</ele>
        <time>2021-07-03T08:51:42.149Z</time>
      </trkpt>
      <trkpt lat="47.08864" lon="6.75895">
        <ele>1225.66</ele>
        <time>2021-07-03T08:51:45.061Z</time>
      </trkpt>
      <trkpt lat="47.0888" lon="6.75902">
        <ele>1225.35</ele>
        <time>2021-07-03T08:51:49.717Z</time>
      </trkpt>
      <trkpt lat="47.08929" lon="6.7592">
        <ele>1226.15</ele>
        <time>2021-07-03T08:52:35.972Z</time>
      </trkpt>
      <trkpt lat="47.08938" lon="6.75922">
        <ele>1226.42</ele>
        <time>2021-07-03T08:52:45.757Z</time>
      </trkpt>
      <trkpt lat="47.08946" lon="6.75923">
        <ele>1226.7000000029</ele>
        <time>2021-07-03T08:52:54.994Z</time>
      </trkpt>
      <trkpt lat="47.08951" lon="6.75923">
        <ele>1226.74</ele>
        <time>2021-07-03T08:52:59.218Z</time>
      </trkpt>
      <trkpt lat="47.08964" lon="6.75921">
        <ele>1227.15</ele>
        <time>2021-07-03T08:53:13.577Z</time>
      </trkpt>
      <trkpt lat="47.08968" lon="6.7592">
        <ele>1227.08</ele>
        <time>2021-07-03T08:53:14.726Z</time>
      </trkpt>
      <trkpt lat="47.09017" lon="6.75909">
        <ele>1226.13</ele>
        <time>2021-07-03T08:53:28.455Z</time>
      </trkpt>
      <trkpt lat="47.09059" lon="6.759">
        <ele>1225.28</ele>
        <time>2021-07-03T08:53:40.092Z</time>
      </trkpt>
      <trkpt lat="47.09075" lon="6.75897">
        <ele>1225.06</ele>
        <time>2021-07-03T08:53:44.872Z</time>
      </trkpt>
      <trkpt lat="47.09082" lon="6.75897">
        <ele>1225.06</ele>
        <time>2021-07-03T08:53:50.352Z</time>
      </trkpt>
      <trkpt lat="47.09088" lon="6.75899">
        <ele>1224.8</ele>
        <time>2021-07-03T08:53:51.690Z</time>
      </trkpt>
      <trkpt lat="47.09091" lon="6.759">
        <ele>1224.75</ele>
        <time>2021-07-03T08:53:52.573Z</time>
      </trkpt>
      <trkpt lat="47.09095" lon="6.75903">
        <ele>1224.59</ele>
        <time>2021-07-03T08:53:53.613Z</time>
      </trkpt>
      <trkpt lat="47.09098" lon="6.75905">
        <ele>1224.52</ele>
        <time>2021-07-03T08:53:54.504Z</time>
      </trkpt>
      <trkpt lat="47.09105" lon="6.7591">
        <ele>1224.0500000128</ele>
        <time>2021-07-03T08:53:55.953Z</time>
      </trkpt>
      <trkpt lat="47.09146" lon="6.75942">
        <ele>1222.1299999909</ele>
        <time>2021-07-03T08:54:06.135Z</time>
      </trkpt>
      <trkpt lat="47.09153" lon="6.75948">
        <ele>1221.8</ele>
        <time>2021-07-03T08:54:07.924Z</time>
      </trkpt>
      <trkpt lat="47.09156" lon="6.75952">
        <ele>1221.47</ele>
        <time>2021-07-03T08:54:08.708Z</time>
      </trkpt>
      <trkpt lat="47.0916" lon="6.75957">
        <ele>1221.0799999723</ele>
        <time>2021-07-03T08:54:09.724Z</time>
      </trkpt>
      <trkpt lat="47.09163" lon="6.75961">
        <ele>1220.6699999787</ele>
        <time>2021-07-03T08:54:10.508Z</time>
      </trkpt>
      <trkpt lat="47.09165" lon="6.75965">
        <ele>1220.32</ele>
        <time>2021-07-03T08:54:11.161Z</time>
      </trkpt>
      <trkpt lat="47.09169" lon="6.75976">
        <ele>1219.51</ele>
        <time>2021-07-03T08:54:12.804Z</time>
      </trkpt>
      <trkpt lat="47.09175" lon="6.75998">
        <ele>1218.17</ele>
        <time>2021-07-03T08:54:15.926Z</time>
      </trkpt>
      <trkpt lat="47.09179" lon="6.76014">
        <ele>1217.2999999906</ele>
        <time>2021-07-03T08:54:18.171Z</time>
      </trkpt>
      <trkpt lat="47.09183" lon="6.76027">
        <ele>1216.79</ele>
        <time>2021-07-03T08:54:20.099Z</time>
      </trkpt>
      <trkpt lat="47.09184" lon="6.76027">
        <ele>1216.77</ele>
        <time>2021-07-03T08:54:20.374Z</time>
      </trkpt>
      <trkpt lat="47.0919" lon="6.76037">
        <ele>1216.6100000019</ele>
        <time>2021-07-03T08:54:22.933Z</time>
      </trkpt>
      <trkpt lat="47.09198" lon="6.76045">
        <ele>1216.3400000117</ele>
        <time>2021-07-03T08:54:25.362Z</time>
      </trkpt>
      <trkpt lat="47.09251" lon="6.76087">
        <ele>1214.45</ele>
        <time>2021-07-03T08:54:39.933Z</time>
      </trkpt>
      <trkpt lat="47.09313" lon="6.76135">
        <ele>1212.26</ele>
        <time>2021-07-03T08:54:56.913Z</time>
      </trkpt>
      <trkpt lat="47.09323" lon="6.76143">
        <ele>1212.13</ele>
        <time>2021-07-03T08:55:00.386Z</time>
      </trkpt>
      <trkpt lat="47.09331" lon="6.7615">
        <ele>1212.0100000049</ele>
        <time>2021-07-03T08:55:03.172Z</time>
      </trkpt>
      <trkpt lat="47.09341" lon="6.7616">
        <ele>1211.4900000143</ele>
        <time>2021-07-03T08:55:05.785Z</time>
      </trkpt>
      <trkpt lat="47.0935" lon="6.76174">
        <ele>1210.76</ele>
        <time>2021-07-03T08:55:08.319Z</time>
      </trkpt>
      <trkpt lat="47.09357" lon="6.76185">
        <ele>1210.1500000268</ele>
        <time>2021-07-03T08:55:10.240Z</time>
      </trkpt>
      <trkpt lat="47.09364" lon="6.76198">
        <ele>1209.4599999948</ele>
        <time>2021-07-03T08:55:12.328Z</time>
      </trkpt>
      <trkpt lat="47.09369" lon="6.76206">
        <ele>1208.88</ele>
        <time>2021-07-03T08:55:13.758Z</time>
      </trkpt>
      <trkpt lat="47.09382" lon="6.76228">
        <ele>1207.26</ele>
        <time>2021-07-03T08:55:17.595Z</time>
      </trkpt>
      <trkpt lat="47.09393" lon="6.76248">
        <ele>1206.0000000266</ele>
        <time>2021-07-03T08:55:20.982Z</time>
      </trkpt>
      <trkpt lat="47.09476" lon="6.76391">
        <ele>1201.1699999997</ele>
        <time>2021-07-03T08:55:50.020Z</time>
      </trkpt>
      <trkpt lat="47.09485" lon="6.76405">
        <ele>1200.930000008</ele>
        <time>2021-07-03T08:55:53.688Z</time>
      </trkpt>
      <trkpt lat="47.09478" lon="6.76416">
        <ele>1201.3400000042</ele>
        <time>2021-07-03T08:56:06.354Z</time>
      </trkpt>
      <trkpt lat="47.09475" lon="6.76424">
        <ele>1201.6700000003</ele>
        <time>2021-07-03T08:56:15.041Z</time>
      </trkpt>
      <trkpt lat="47.09474" lon="6.7643">
        <ele>1202.0599999727</ele>
        <time>2021-07-03T08:56:23.037Z</time>
      </trkpt>
      <trkpt lat="47.09474" lon="6.76438">
        <ele>1202.3999999847</ele>
        <time>2021-07-03T08:56:31.153Z</time>
      </trkpt>
      <trkpt lat="47.09477" lon="6.76451">
        <ele>1203.06</ele>
        <time>2021-07-03T08:56:45.945Z</time>
      </trkpt>
      <trkpt lat="47.09482" lon="6.76473">
        <ele>1204.0999999945</ele>
        <time>2021-07-03T08:57:10.069Z</time>
      </trkpt>
      <trkpt lat="47.09487" lon="6.76501">
        <ele>1205.3599999916</ele>
        <time>2021-07-03T08:57:39.758Z</time>
      </trkpt>
      <trkpt lat="47.09494" lon="6.76547">
        <ele>1207.64</ele>
        <time>2021-07-03T08:58:30.715Z</time>
      </trkpt>
      <trkpt lat="47.09496" lon="6.76562">
        <ele>1208.33</ele>
        <time>2021-07-03T08:58:46.665Z</time>
      </trkpt>
      <trkpt lat="47.09497" lon="6.76569">
        <ele>1208.63</ele>
        <time>2021-07-03T08:58:53.879Z</time>
      </trkpt>
      <trkpt lat="47.09497" lon="6.76575">
        <ele>1208.91</ele>
        <time>2021-07-03T08:59:00.245Z</time>
      </trkpt>
      <trkpt lat="47.09498" lon="6.76588">
        <ele>1209.51</ele>
        <time>2021-07-03T08:59:14.003Z</time>
      </trkpt>
      <trkpt lat="47.09498" lon="6.76601">
        <ele>1210.1599999712</ele>
        <time>2021-07-03T08:59:28.317Z</time>
      </trkpt>
      <trkpt lat="47.09497" lon="6.76614">
        <ele>1210.6500000322</ele>
        <time>2021-07-03T08:59:40.924Z</time>
      </trkpt>
      <trkpt lat="47.09497" lon="6.76626">
        <ele>1211.2899999898</ele>
        <time>2021-07-03T08:59:54.658Z</time>
      </trkpt>
      <trkpt lat="47.09495" lon="6.76638">
        <ele>1211.6799999865</ele>
        <time>2021-07-03T09:00:05.905Z</time>
      </trkpt>
      <trkpt lat="47.09493" lon="6.76653">
        <ele>1212.29</ele>
        <time>2021-07-03T09:00:21.003Z</time>
      </trkpt>
      <trkpt lat="47.09492" lon="6.76661">
        <ele>1212.8200000126</ele>
        <time>2021-07-03T09:00:31.824Z</time>
      </trkpt>
      <trkpt lat="47.09493" lon="6.76669">
        <ele>1213.02</ele>
        <time>2021-07-03T09:00:38.303Z</time>
      </trkpt>
      <trkpt lat="47.09495" lon="6.76677">
        <ele>1213.2399999827</ele>
        <time>2021-07-03T09:00:45.263Z</time>
      </trkpt>
      <trkpt lat="47.09508" lon="6.76711">
        <ele>1214.36</ele>
        <time>2021-07-03T09:01:19.137Z</time>
      </trkpt>
      <trkpt lat="47.09511" lon="6.76721">
        <ele>1214.62</ele>
        <time>2021-07-03T09:01:27.704Z</time>
      </trkpt>
      <trkpt lat="47.09513" lon="6.76731">
        <ele>1214.9500000031</ele>
        <time>2021-07-03T09:01:37.201Z</time>
      </trkpt>
      <trkpt lat="47.09513" lon="6.76741">
        <ele>1215.0599999942</ele>
        <time>2021-07-03T09:01:43.456Z</time>
      </trkpt>
      <trkpt lat="47.09513" lon="6.76751">
        <ele>1215.37</ele>
        <time>2021-07-03T09:01:52.511Z</time>
      </trkpt>
      <trkpt lat="47.09514" lon="6.76759">
        <ele>1215.54</ele>
        <time>2021-07-03T09:01:58.542Z</time>
      </trkpt>
      <trkpt lat="47.09516" lon="6.76769">
        <ele>1215.6099999971</ele>
        <time>2021-07-03T09:02:04.649Z</time>
      </trkpt>
      <trkpt lat="47.0952" lon="6.76778">
        <ele>1215.91</ele>
        <time>2021-07-03T09:02:13.823Z</time>
      </trkpt>
      <trkpt lat="47.09525" lon="6.76783">
        <ele>1216.02</ele>
        <time>2021-07-03T09:02:19.505Z</time>
      </trkpt>
      <trkpt lat="47.0953" lon="6.76787">
        <ele>1216.2399999911</ele>
        <time>2021-07-03T09:02:26.405Z</time>
      </trkpt>
      <trkpt lat="47.09536" lon="6.76789">
        <ele>1216.3800000067</ele>
        <time>2021-07-03T09:02:32.490Z</time>
      </trkpt>
      <trkpt lat="47.09539" lon="6.7679">
        <ele>1216.42</ele>
        <time>2021-07-03T09:02:35.224Z</time>
      </trkpt>
      <trkpt lat="47.09562" lon="6.76796">
        <ele>1216.8399999997</ele>
        <time>2021-07-03T09:02:57.118Z</time>
      </trkpt>
      <trkpt lat="47.09568" lon="6.76797">
        <ele>1216.8300000062</ele>
        <time>2021-07-03T09:03:01.729Z</time>
      </trkpt>
      <trkpt lat="47.09569" lon="6.76797">
        <ele>1216.8899999733</ele>
        <time>2021-07-03T09:03:03.194Z</time>
      </trkpt>
      <trkpt lat="47.09572" lon="6.76797">
        <ele>1216.9699999921</ele>
        <time>2021-07-03T09:03:06.302Z</time>
      </trkpt>
      <trkpt lat="47.09577" lon="6.76795">
        <ele>1217.0799999919</ele>
        <time>2021-07-03T09:03:11.338Z</time>
      </trkpt>
      <trkpt lat="47.09593" lon="6.76788">
        <ele>1217.33</ele>
        <time>2021-07-03T09:03:26.486Z</time>
      </trkpt>
      <trkpt lat="47.09598" lon="6.76786">
        <ele>1217.41</ele>
        <time>2021-07-03T09:03:31.212Z</time>
      </trkpt>
      <trkpt lat="47.096" lon="6.76785">
        <ele>1217.4399999975</ele>
        <time>2021-07-03T09:03:33.113Z</time>
      </trkpt>
      <trkpt lat="47.09604" lon="6.76784">
        <ele>1217.4599999982</ele>
        <time>2021-07-03T09:03:36.440Z</time>
      </trkpt>
      <trkpt lat="47.09609" lon="6.76785">
        <ele>1217.5499999971</ele>
        <time>2021-07-03T09:03:41.162Z</time>
      </trkpt>
      <trkpt lat="47.09616" lon="6.76787">
        <ele>1217.84</ele>
        <time>2021-07-03T09:03:50.059Z</time>
      </trkpt>
      <trkpt lat="47.09617" lon="6.76788">
        <ele>1217.87</ele>
        <time>2021-07-03T09:03:51.285Z</time>
      </trkpt>
      <trkpt lat="47.09621" lon="6.76792">
        <ele>1218.0199999894</ele>
        <time>2021-07-03T09:03:56.575Z</time>
      </trkpt>
      <trkpt lat="47.09626" lon="6.76798">
        <ele>1218.1100000028</ele>
        <time>2021-07-03T09:04:02.370Z</time>
      </trkpt>
      <trkpt lat="47.09628" lon="6.768">
        <ele>1218.1299999993</ele>
        <time>2021-07-03T09:04:04.419Z</time>
      </trkpt>
      <trkpt lat="47.09635" lon="6.76811">
        <ele>1218.300000004</ele>
        <time>2021-07-03T09:04:13.882Z</time>
      </trkpt>
      <trkpt lat="47.09641" lon="6.76821">
        <ele>1218.5200000041</ele>
        <time>2021-07-03T09:04:23.015Z</time>
      </trkpt>
      <trkpt lat="47.09646" lon="6.76832">
        <ele>1218.8200000012</ele>
        <time>2021-07-03T09:04:33.161Z</time>
      </trkpt>
      <trkpt lat="47.09647" lon="6.76834">
        <ele>1218.88</ele>
        <time>2021-07-03T09:04:35.121Z</time>
      </trkpt>
      <trkpt lat="47.09648" lon="6.76835">
        <ele>1218.88</ele>
        <time>2021-07-03T09:04:36.068Z</time>
      </trkpt>
      <trkpt lat="47.09647" lon="6.76834">
        <ele>1218.88</ele>
        <time>2021-07-03T09:04:37.015Z</time>
      </trkpt>
      <trkpt lat="47.09648" lon="6.76837">
        <ele>1218.9399999991</ele>
        <time>2021-07-03T09:04:39.363Z</time>
      </trkpt>
      <trkpt lat="47.09653" lon="6.76848">
        <ele>1219.12</ele>
        <time>2021-07-03T09:04:47.992Z</time>
      </trkpt>
      <trkpt lat="47.09666" lon="6.76879">
        <ele>1219.7499999982</ele>
        <time>2021-07-03T09:05:13.287Z</time>
      </trkpt>
      <trkpt lat="47.09709" lon="6.76988">
        <ele>1221.81</ele>
        <time>2021-07-03T09:06:39.370Z</time>
      </trkpt>
      <trkpt lat="47.09725" lon="6.77028">
        <ele>1222.64</ele>
        <time>2021-07-03T09:07:11.936Z</time>
      </trkpt>
      <trkpt lat="47.0973" lon="6.77041">
        <ele>1222.9299999984</ele>
        <time>2021-07-03T09:07:22.710Z</time>
      </trkpt>
      <trkpt lat="47.09747" lon="6.77076">
        <ele>1223.66</ele>
        <time>2021-07-03T09:07:52.410Z</time>
      </trkpt>
      <trkpt lat="47.09756" lon="6.77096">
        <ele>1224.1199999924</ele>
        <time>2021-07-03T09:08:09.635Z</time>
      </trkpt>
      <trkpt lat="47.09765" lon="6.77119">
        <ele>1224.43</ele>
        <time>2021-07-03T09:08:26.411Z</time>
      </trkpt>
      <trkpt lat="47.0977" lon="6.77133">
        <ele>1224.77</ele>
        <time>2021-07-03T09:08:38.268Z</time>
      </trkpt>
      <trkpt lat="47.09773" lon="6.77143">
        <ele>1225.02</ele>
        <time>2021-07-03T09:08:46.683Z</time>
      </trkpt>
      <trkpt lat="47.09774" lon="6.77147">
        <ele>1225.0799999948</ele>
        <time>2021-07-03T09:08:49.485Z</time>
      </trkpt>
      <trkpt lat="47.09775" lon="6.77155">
        <ele>1225.2</ele>
        <time>2021-07-03T09:08:54.893Z</time>
      </trkpt>
      <trkpt lat="47.09776" lon="6.77159">
        <ele>1225.39</ele>
        <time>2021-07-03T09:08:59.313Z</time>
      </trkpt>
      <trkpt lat="47.09777" lon="6.77164">
        <ele>1225.5599999836</ele>
        <time>2021-07-03T09:09:04.105Z</time>
      </trkpt>
      <trkpt lat="47.09777" lon="6.77175">
        <ele>1225.84</ele>
        <time>2021-07-03T09:09:13.021Z</time>
      </trkpt>
      <trkpt lat="47.09777" lon="6.77195">
        <ele>1226</ele>
        <time>2021-07-03T09:09:24.966Z</time>
      </trkpt>
      <trkpt lat="47.09776" lon="6.77217">
        <ele>1226.26</ele>
        <time>2021-07-03T09:09:38.934Z</time>
      </trkpt>
      <trkpt lat="47.09777" lon="6.77233">
        <ele>1226.35</ele>
        <time>2021-07-03T09:09:48.195Z</time>
      </trkpt>
      <trkpt lat="47.09778" lon="6.7725">
        <ele>1226.6999999908</ele>
        <time>2021-07-03T09:10:00.756Z</time>
      </trkpt>
      <trkpt lat="47.09781" lon="6.7727">
        <ele>1226.95</ele>
        <time>2021-07-03T09:10:13.816Z</time>
      </trkpt>
      <trkpt lat="47.09784" lon="6.77281">
        <ele>1227.1000000006</ele>
        <time>2021-07-03T09:10:21.428Z</time>
      </trkpt>
      <trkpt lat="47.09787" lon="6.77291">
        <ele>1227.3699999877</ele>
        <time>2021-07-03T09:10:30.153Z</time>
      </trkpt>
      <trkpt lat="47.09792" lon="6.773">
        <ele>1227.6899999876</ele>
        <time>2021-07-03T09:10:39.991Z</time>
      </trkpt>
      <trkpt lat="47.09817" lon="6.77342">
        <ele>1228.5100000031</ele>
        <time>2021-07-03T09:11:17.055Z</time>
      </trkpt>
      <trkpt lat="47.0983" lon="6.77363">
        <ele>1228.78</ele>
        <time>2021-07-03T09:11:34.404Z</time>
      </trkpt>
      <trkpt lat="47.09864" lon="6.77403">
        <ele>1228.46</ele>
        <time>2021-07-03T09:11:48.431Z</time>
      </trkpt>
      <trkpt lat="47.09882" lon="6.77427">
        <ele>1228.01</ele>
        <time>2021-07-03T09:11:55.216Z</time>
      </trkpt>
      <trkpt lat="47.09889" lon="6.77438">
        <ele>1227.6399999926</ele>
        <time>2021-07-03T09:11:57.581Z</time>
      </trkpt>
      <trkpt lat="47.09892" lon="6.77445">
        <ele>1227.57</ele>
        <time>2021-07-03T09:11:59.276Z</time>
      </trkpt>
      <trkpt lat="47.09898" lon="6.77461">
        <ele>1227.2899999962</ele>
        <time>2021-07-03T09:12:02.588Z</time>
      </trkpt>
      <trkpt lat="47.09904" lon="6.77476">
        <ele>1226.93</ele>
        <time>2021-07-03T09:12:05.483Z</time>
      </trkpt>
      <trkpt lat="47.09912" lon="6.77496">
        <ele>1226.55</ele>
        <time>2021-07-03T09:12:09.617Z</time>
      </trkpt>
      <trkpt lat="47.09917" lon="6.77509">
        <ele>1226.44</ele>
        <time>2021-07-03T09:12:12.741Z</time>
      </trkpt>
      <trkpt lat="47.09918" lon="6.77517">
        <ele>1226.2799999961</ele>
        <time>2021-07-03T09:12:14.116Z</time>
      </trkpt>
      <trkpt lat="47.09919" lon="6.77519">
        <ele>1226.23</ele>
        <time>2021-07-03T09:12:14.532Z</time>
      </trkpt>
      <trkpt lat="47.09919" lon="6.7753">
        <ele>1226.17</ele>
        <time>2021-07-03T09:12:16.921Z</time>
      </trkpt>
      <trkpt lat="47.09918" lon="6.77536">
        <ele>1226.02</ele>
        <time>2021-07-03T09:12:17.896Z</time>
      </trkpt>
      <trkpt lat="47.09918" lon="6.77541">
        <ele>1225.880000001</ele>
        <time>2021-07-03T09:12:18.644Z</time>
      </trkpt>
      <trkpt lat="47.09917" lon="6.77545">
        <ele>1225.8999999985</ele>
        <time>2021-07-03T09:12:21.068Z</time>
      </trkpt>
      <trkpt lat="47.09915" lon="6.77551">
        <ele>1225.94</ele>
        <time>2021-07-03T09:12:24.940Z</time>
      </trkpt>
      <trkpt lat="47.09911" lon="6.7756">
        <ele>1225.6700000008</ele>
        <time>2021-07-03T09:12:26.615Z</time>
      </trkpt>
      <trkpt lat="47.0991" lon="6.77563">
        <ele>1225.6799999984</ele>
        <time>2021-07-03T09:12:28.470Z</time>
      </trkpt>
      <trkpt lat="47.09907" lon="6.77568">
        <ele>1225.68</ele>
        <time>2021-07-03T09:12:32.022Z</time>
      </trkpt>
      <trkpt lat="47.09898" lon="6.77583">
        <ele>1225.2</ele>
        <time>2021-07-03T09:12:35.188Z</time>
      </trkpt>
      <trkpt lat="47.0989" lon="6.77596">
        <ele>1224.86</ele>
        <time>2021-07-03T09:12:38.163Z</time>
      </trkpt>
      <trkpt lat="47.09888" lon="6.77601">
        <ele>1224.7199999759</ele>
        <time>2021-07-03T09:12:39.079Z</time>
      </trkpt>
      <trkpt lat="47.09888" lon="6.77602">
        <ele>1224.68</ele>
        <time>2021-07-03T09:12:39.208Z</time>
      </trkpt>
      <trkpt lat="47.09886" lon="6.77609">
        <ele>1224.62</ele>
        <time>2021-07-03T09:12:40.780Z</time>
      </trkpt>
      <trkpt lat="47.09887" lon="6.77614">
        <ele>1224.5300000038</ele>
        <time>2021-07-03T09:12:41.695Z</time>
      </trkpt>
      <trkpt lat="47.09887" lon="6.77621">
        <ele>1224.3700000107</ele>
        <time>2021-07-03T09:12:42.822Z</time>
      </trkpt>
      <trkpt lat="47.09888" lon="6.7763">
        <ele>1224.5399999939</ele>
        <time>2021-07-03T09:12:49.310Z</time>
      </trkpt>
      <trkpt lat="47.0989" lon="6.77637">
        <ele>1224.3800000099</ele>
        <time>2021-07-03T09:12:50.565Z</time>
      </trkpt>
      <trkpt lat="47.09892" lon="6.77645">
        <ele>1224.23</ele>
        <time>2021-07-03T09:12:52.054Z</time>
      </trkpt>
      <trkpt lat="47.09894" lon="6.77651">
        <ele>1224.0800000166</ele>
        <time>2021-07-03T09:12:53.137Z</time>
      </trkpt>
      <trkpt lat="47.09896" lon="6.77658">
        <ele>1223.9100000045</ele>
        <time>2021-07-03T09:12:54.368Z</time>
      </trkpt>
      <trkpt lat="47.099" lon="6.77669">
        <ele>1223.6900000064</ele>
        <time>2021-07-03T09:12:56.545Z</time>
      </trkpt>
      <trkpt lat="47.09917" lon="6.77702">
        <ele>1223</ele>
        <time>2021-07-03T09:13:03.884Z</time>
      </trkpt>
      <trkpt lat="47.09949" lon="6.77759">
        <ele>1221.9899999911</ele>
        <time>2021-07-03T09:13:17.664Z</time>
      </trkpt>
      <trkpt lat="47.09968" lon="6.77789">
        <ele>1221.27</ele>
        <time>2021-07-03T09:13:24.825Z</time>
      </trkpt>
      <trkpt lat="47.0998" lon="6.77804">
        <ele>1220.98</ele>
        <time>2021-07-03T09:13:29.229Z</time>
      </trkpt>
      <trkpt lat="47.09991" lon="6.77818">
        <ele>1220.8300000046</ele>
        <time>2021-07-03T09:13:33.732Z</time>
      </trkpt>
      <trkpt lat="47.10004" lon="6.77834">
        <ele>1220.3899999934</ele>
        <time>2021-07-03T09:13:38.080Z</time>
      </trkpt>
      <trkpt lat="47.10012" lon="6.77847">
        <ele>1220.0600000076</ele>
        <time>2021-07-03T09:13:41.082Z</time>
      </trkpt>
      <trkpt lat="47.1004" lon="6.779">
        <ele>1218.720000034</ele>
        <time>2021-07-03T09:13:52.370Z</time>
      </trkpt>
      <trkpt lat="47.10042" lon="6.77917">
        <ele>1219.5799999846</ele>
        <time>2021-07-03T09:14:11.333Z</time>
      </trkpt>
      <trkpt lat="47.10043" lon="6.7795">
        <ele>1223.44</ele>
        <time>2021-07-03T09:15:19.235Z</time>
      </trkpt>
      <trkpt lat="47.10042" lon="6.77975">
        <ele>1226.03</ele>
        <time>2021-07-03T09:16:10.715Z</time>
      </trkpt>
      <trkpt lat="47.10039" lon="6.77989">
        <ele>1227.8</ele>
        <time>2021-07-03T09:16:40.885Z</time>
      </trkpt>
      <trkpt lat="47.10035" lon="6.77998">
        <ele>1229.41</ele>
        <time>2021-07-03T09:17:02.980Z</time>
      </trkpt>
      <trkpt lat="47.10027" lon="6.78023">
        <ele>1232.3300000093</ele>
        <time>2021-07-03T09:17:59.766Z</time>
      </trkpt>
      <trkpt lat="47.10022" lon="6.78043">
        <ele>1233.8</ele>
        <time>2021-07-03T09:18:29.689Z</time>
      </trkpt>
      <trkpt lat="47.1002" lon="6.78047">
        <ele>1234.53</ele>
        <time>2021-07-03T09:18:39.892Z</time>
      </trkpt>
      <trkpt lat="47.1001" lon="6.78067">
        <ele>1236.7799999528</ele>
        <time>2021-07-03T09:19:30.729Z</time>
      </trkpt>
      <trkpt lat="47.0999" lon="6.78108">
        <ele>1239.0200000367</ele>
        <time>2021-07-03T09:20:22.946Z</time>
      </trkpt>
      <trkpt lat="47.09982" lon="6.78111">
        <ele>1239.7500000094</ele>
        <time>2021-07-03T09:20:38.051Z</time>
      </trkpt>
      <trkpt lat="47.09974" lon="6.78112">
        <ele>1240.11</ele>
        <time>2021-07-03T09:20:48.683Z</time>
      </trkpt>
      <trkpt lat="47.09966" lon="6.78115">
        <ele>1240.68000001</ele>
        <time>2021-07-03T09:21:01.596Z</time>
      </trkpt>
      <trkpt lat="47.0996" lon="6.78118">
        <ele>1240.9099999991</ele>
        <time>2021-07-03T09:21:09.029Z</time>
      </trkpt>
      <trkpt lat="47.09952" lon="6.78126">
        <ele>1241.0399999902</ele>
        <time>2021-07-03T09:21:17.669Z</time>
      </trkpt>
      <trkpt lat="47.09947" lon="6.7813">
        <ele>1240.81</ele>
        <time>2021-07-03T09:21:18.929Z</time>
      </trkpt>
      <trkpt lat="47.0994" lon="6.78138">
        <ele>1240.56</ele>
        <time>2021-07-03T09:21:21.148Z</time>
      </trkpt>
      <trkpt lat="47.09932" lon="6.78145">
        <ele>1239.76</ele>
        <time>2021-07-03T09:21:22.949Z</time>
      </trkpt>
      <trkpt lat="47.09928" lon="6.7815">
        <ele>1239.7599999604</ele>
        <time>2021-07-03T09:21:27.061Z</time>
      </trkpt>
      <trkpt lat="47.09926" lon="6.78152">
        <ele>1239.36</ele>
        <time>2021-07-03T09:21:27.529Z</time>
      </trkpt>
      <trkpt lat="47.09924" lon="6.78162">
        <ele>1239.36</ele>
        <time>2021-07-03T09:21:33.084Z</time>
      </trkpt>
      <trkpt lat="47.0992" lon="6.78171">
        <ele>1238.96</ele>
        <time>2021-07-03T09:21:34.511Z</time>
      </trkpt>
      <trkpt lat="47.09915" lon="6.78178">
        <ele>1238.96</ele>
        <time>2021-07-03T09:21:39.918Z</time>
      </trkpt>
      <trkpt lat="47.09907" lon="6.78186">
        <ele>1239.36</ele>
        <time>2021-07-03T09:21:52.111Z</time>
      </trkpt>
      <trkpt lat="47.0988" lon="6.78205">
        <ele>1239.7599999994</ele>
        <time>2021-07-03T09:22:18.818Z</time>
      </trkpt>
      <trkpt lat="47.09853" lon="6.78229">
        <ele>1240.5600000065</ele>
        <time>2021-07-03T09:22:50.998Z</time>
      </trkpt>
      <trkpt lat="47.09834" lon="6.78244">
        <ele>1240.96</ele>
        <time>2021-07-03T09:23:11.341Z</time>
      </trkpt>
      <trkpt lat="47.09823" lon="6.7825">
        <ele>1241.63</ele>
        <time>2021-07-03T09:23:28.187Z</time>
      </trkpt>
      <trkpt lat="47.09824" lon="6.78251">
        <ele>1241.63</ele>
        <time>2021-07-03T09:23:29.134Z</time>
      </trkpt>
      <trkpt lat="47.09824" lon="6.78251">
        <ele>1241.63</ele>
        <time>2021-07-03T09:23:29.134Z</time>
      </trkpt>
      <trkpt lat="47.09823" lon="6.7825">
        <ele>1241.63</ele>
        <time>2021-07-03T09:23:30.082Z</time>
      </trkpt>
      <trkpt lat="47.09813" lon="6.78257">
        <ele>1242.31</ele>
        <time>2021-07-03T09:23:46.469Z</time>
      </trkpt>
      <trkpt lat="47.09798" lon="6.7827">
        <ele>1243.1600000078</ele>
        <time>2021-07-03T09:24:10.125Z</time>
      </trkpt>
      <trkpt lat="47.0979" lon="6.78276">
        <ele>1243.5799999811</ele>
        <time>2021-07-03T09:24:22.166Z</time>
      </trkpt>
      <trkpt lat="47.09782" lon="6.78284">
        <ele>1244.45</ele>
        <time>2021-07-03T09:24:40.104Z</time>
      </trkpt>
      <trkpt lat="47.09776" lon="6.78291">
        <ele>1245.21</ele>
        <time>2021-07-03T09:24:55.581Z</time>
      </trkpt>
      <trkpt lat="47.09762" lon="6.78299">
        <ele>1246.64</ele>
        <time>2021-07-03T09:25:24.797Z</time>
      </trkpt>
      <trkpt lat="47.09751" lon="6.78306">
        <ele>1247.5600000032</ele>
        <time>2021-07-03T09:25:44.694Z</time>
      </trkpt>
      <trkpt lat="47.09748" lon="6.78307">
        <ele>1247.599999997</ele>
        <time>2021-07-03T09:25:47.428Z</time>
      </trkpt>
      <trkpt lat="47.09745" lon="6.78311">
        <ele>1247.57</ele>
        <time>2021-07-03T09:25:48.732Z</time>
      </trkpt>
      <trkpt lat="47.09741" lon="6.78318">
        <ele>1247.6</ele>
        <time>2021-07-03T09:25:53.828Z</time>
      </trkpt>
      <trkpt lat="47.09736" lon="6.7833">
        <ele>1247.4600000057</ele>
        <time>2021-07-03T09:25:56.632Z</time>
      </trkpt>
      <trkpt lat="47.09728" lon="6.78351">
        <ele>1246.479999991</ele>
        <time>2021-07-03T09:25:59.694Z</time>
      </trkpt>
      <trkpt lat="47.09725" lon="6.78361">
        <ele>1246.0800000267</ele>
        <time>2021-07-03T09:26:01.156Z</time>
      </trkpt>
      <trkpt lat="47.09719" lon="6.78377">
        <ele>1246.04</ele>
        <time>2021-07-03T09:26:10.434Z</time>
      </trkpt>
      <trkpt lat="47.09717" lon="6.78384">
        <ele>1246</ele>
        <time>2021-07-03T09:26:12.089Z</time>
      </trkpt>
      <trkpt lat="47.09715" lon="6.78391">
        <ele>1245.909999982</ele>
        <time>2021-07-03T09:26:13.551Z</time>
      </trkpt>
      <trkpt lat="47.09714" lon="6.78394">
        <ele>1245.8100000109</ele>
        <time>2021-07-03T09:26:14.038Z</time>
      </trkpt>
      <trkpt lat="47.09716" lon="6.78399">
        <ele>1245.5900000093</ele>
        <time>2021-07-03T09:26:14.801Z</time>
      </trkpt>
      <trkpt lat="47.09721" lon="6.7841">
        <ele>1245.2000000057</ele>
        <time>2021-07-03T09:26:16.740Z</time>
      </trkpt>
      <trkpt lat="47.09712" lon="6.78437">
        <ele>1243.37</ele>
        <time>2021-07-03T09:26:20.699Z</time>
      </trkpt>
      <trkpt lat="47.09708" lon="6.78448">
        <ele>1242.56</ele>
        <time>2021-07-03T09:26:22.342Z</time>
      </trkpt>
      <trkpt lat="47.09706" lon="6.78458">
        <ele>1241.82</ele>
        <time>2021-07-03T09:26:23.715Z</time>
      </trkpt>
      <trkpt lat="47.09704" lon="6.7847">
        <ele>1240.9</ele>
        <time>2021-07-03T09:26:25.342Z</time>
      </trkpt>
      <trkpt lat="47.09706" lon="6.78487">
        <ele>1239.98</ele>
        <time>2021-07-03T09:26:27.614Z</time>
      </trkpt>
      <trkpt lat="47.0971" lon="6.78505">
        <ele>1239.0100000149</ele>
        <time>2021-07-03T09:26:30.108Z</time>
      </trkpt>
      <trkpt lat="47.09718" lon="6.78528">
        <ele>1237.22</ele>
        <time>2021-07-03T09:26:33.510Z</time>
      </trkpt>
      <trkpt lat="47.09721" lon="6.78542">
        <ele>1236.64</ele>
        <time>2021-07-03T09:26:35.404Z</time>
      </trkpt>
      <trkpt lat="47.09722" lon="6.78542">
        <ele>1236.64</ele>
        <time>2021-07-03T09:26:36.187Z</time>
      </trkpt>
      <trkpt lat="47.09722" lon="6.78542">
        <ele>1236.64</ele>
        <time>2021-07-03T09:26:36.187Z</time>
      </trkpt>
      <trkpt lat="47.09721" lon="6.78542">
        <ele>1236.64</ele>
        <time>2021-07-03T09:26:36.970Z</time>
      </trkpt>
      <trkpt lat="47.09722" lon="6.78546">
        <ele>1236.06</ele>
        <time>2021-07-03T09:26:37.531Z</time>
      </trkpt>
      <trkpt lat="47.09725" lon="6.78558">
        <ele>1235.42</ele>
        <time>2021-07-03T09:26:39.215Z</time>
      </trkpt>
      <trkpt lat="47.09731" lon="6.78582">
        <ele>1234.13</ele>
        <time>2021-07-03T09:26:42.582Z</time>
      </trkpt>
      <trkpt lat="47.09736" lon="6.78602">
        <ele>1232.9499999951</ele>
        <time>2021-07-03T09:26:45.389Z</time>
      </trkpt>
      <trkpt lat="47.09738" lon="6.78621">
        <ele>1232.3999999992</ele>
        <time>2021-07-03T09:26:48.241Z</time>
      </trkpt>
      <trkpt lat="47.0974" lon="6.78632">
        <ele>1232.16</ele>
        <time>2021-07-03T09:26:50.125Z</time>
      </trkpt>
      <trkpt lat="47.09741" lon="6.78639">
        <ele>1231.5900000054</ele>
        <time>2021-07-03T09:26:51.067Z</time>
      </trkpt>
      <trkpt lat="47.09742" lon="6.78652">
        <ele>1231.3300000064</ele>
        <time>2021-07-03T09:26:53.271Z</time>
      </trkpt>
      <trkpt lat="47.09746" lon="6.7868">
        <ele>1230.5299999954</ele>
        <time>2021-07-03T09:26:57.554Z</time>
      </trkpt>
      <trkpt lat="47.09747" lon="6.7869">
        <ele>1230.26</ele>
        <time>2021-07-03T09:26:59.094Z</time>
      </trkpt>
      <trkpt lat="47.09746" lon="6.78703">
        <ele>1229.9900000102</ele>
        <time>2021-07-03T09:27:01.272Z</time>
      </trkpt>
      <trkpt lat="47.09745" lon="6.78719">
        <ele>1229.5900000058</ele>
        <time>2021-07-03T09:27:03.784Z</time>
      </trkpt>
      <trkpt lat="47.09741" lon="6.78752">
        <ele>1228.9399999905</ele>
        <time>2021-07-03T09:27:09.475Z</time>
      </trkpt>
      <trkpt lat="47.0974" lon="6.78772">
        <ele>1228.56</ele>
        <time>2021-07-03T09:27:12.904Z</time>
      </trkpt>
      <trkpt lat="47.09741" lon="6.78783">
        <ele>1228.66</ele>
        <time>2021-07-03T09:27:19.635Z</time>
      </trkpt>
      <trkpt lat="47.09742" lon="6.78789">
        <ele>1228.389999889</ele>
        <time>2021-07-03T09:27:20.394Z</time>
      </trkpt>
      <trkpt lat="47.09743" lon="6.78795">
        <ele>1227.1</ele>
        <time>2021-07-03T09:27:21.208Z</time>
      </trkpt>
      <trkpt lat="47.09752" lon="6.7884">
        <ele>1223.95</ele>
        <time>2021-07-03T09:27:27.385Z</time>
      </trkpt>
      <trkpt lat="47.09756" lon="6.78858">
        <ele>1224.93</ele>
        <time>2021-07-03T09:27:48.659Z</time>
      </trkpt>
      <trkpt lat="47.09757" lon="6.78873">
        <ele>1224.93</ele>
        <time>2021-07-03T09:27:56.692Z</time>
      </trkpt>
      <trkpt lat="47.09757" lon="6.78882">
        <ele>1224.93</ele>
        <time>2021-07-03T09:28:01.489Z</time>
      </trkpt>
      <trkpt lat="47.09756" lon="6.78891">
        <ele>1224.93</ele>
        <time>2021-07-03T09:28:06.349Z</time>
      </trkpt>
      <trkpt lat="47.09757" lon="6.78901">
        <ele>1225.19</ele>
        <time>2021-07-03T09:28:14.587Z</time>
      </trkpt>
      <trkpt lat="47.09756" lon="6.78907">
        <ele>1225.19</ele>
        <time>2021-07-03T09:28:17.879Z</time>
      </trkpt>
      <trkpt lat="47.09756" lon="6.78921">
        <ele>1225.19</ele>
        <time>2021-07-03T09:28:25.341Z</time>
      </trkpt>
      <trkpt lat="47.09757" lon="6.78927">
        <ele>1224.9300000053</ele>
        <time>2021-07-03T09:28:26.115Z</time>
      </trkpt>
      <trkpt lat="47.09757" lon="6.78933">
        <ele>1225.19</ele>
        <time>2021-07-03T09:28:32.256Z</time>
      </trkpt>
      <trkpt lat="47.09756" lon="6.78935">
        <ele>1225.19</ele>
        <time>2021-07-03T09:28:33.578Z</time>
      </trkpt>
      <trkpt lat="47.09751" lon="6.78965">
        <ele>1223.58</ele>
        <time>2021-07-03T09:28:37.646Z</time>
      </trkpt>
      <trkpt lat="47.09746" lon="6.78984">
        <ele>1222.5699999848</ele>
        <time>2021-07-03T09:28:40.329Z</time>
      </trkpt>
      <trkpt lat="47.09744" lon="6.79001">
        <ele>1221.1599999823</ele>
        <time>2021-07-03T09:28:42.601Z</time>
      </trkpt>
      <trkpt lat="47.09742" lon="6.79017">
        <ele>1219.64</ele>
        <time>2021-07-03T09:28:44.744Z</time>
      </trkpt>
      <trkpt lat="47.09742" lon="6.79036">
        <ele>1217.8800000111</ele>
        <time>2021-07-03T09:28:47.246Z</time>
      </trkpt>
      <trkpt lat="47.09743" lon="6.79059">
        <ele>1216.2299999762</ele>
        <time>2021-07-03T09:28:50.282Z</time>
      </trkpt>
      <trkpt lat="47.09747" lon="6.79077">
        <ele>1215.0599999658</ele>
        <time>2021-07-03T09:28:52.776Z</time>
      </trkpt>
      <trkpt lat="47.09749" lon="6.79088">
        <ele>1214.24</ele>
        <time>2021-07-03T09:28:54.275Z</time>
      </trkpt>
      <trkpt lat="47.0975" lon="6.79103">
        <ele>1213.659999932</ele>
        <time>2021-07-03T09:28:56.245Z</time>
      </trkpt>
      <trkpt lat="47.09749" lon="6.79114">
        <ele>1212.36</ele>
        <time>2021-07-03T09:28:57.707Z</time>
      </trkpt>
      <trkpt lat="47.09746" lon="6.79145">
        <ele>1210.1399999534</ele>
        <time>2021-07-03T09:29:01.831Z</time>
      </trkpt>
      <trkpt lat="47.09745" lon="6.79157">
        <ele>1207.09</ele>
        <time>2021-07-03T09:29:03.423Z</time>
      </trkpt>
      <trkpt lat="47.09746" lon="6.79171">
        <ele>1204.51</ele>
        <time>2021-07-03T09:29:05.277Z</time>
      </trkpt>
      <trkpt lat="47.09748" lon="6.79184">
        <ele>1203.5699999986</ele>
        <time>2021-07-03T09:29:07.032Z</time>
      </trkpt>
      <trkpt lat="47.09749" lon="6.79194">
        <ele>1203.33</ele>
        <time>2021-07-03T09:29:08.639Z</time>
      </trkpt>
      <trkpt lat="47.0975" lon="6.79207">
        <ele>1202.04</ele>
        <time>2021-07-03T09:29:10.362Z</time>
      </trkpt>
      <trkpt lat="47.0975" lon="6.7922">
        <ele>1200.99</ele>
        <time>2021-07-03T09:29:12.074Z</time>
      </trkpt>
      <trkpt lat="47.09747" lon="6.79229">
        <ele>1200.75</ele>
        <time>2021-07-03T09:29:13.662Z</time>
      </trkpt>
      <trkpt lat="47.09745" lon="6.79233">
        <ele>1201.34</ele>
        <time>2021-07-03T09:29:23.865Z</time>
      </trkpt>
      <trkpt lat="47.09744" lon="6.79235">
        <ele>1201.230000011</ele>
        <time>2021-07-03T09:29:24.168Z</time>
      </trkpt>
      <trkpt lat="47.09736" lon="6.79268">
        <ele>1204.04</ele>
        <time>2021-07-03T09:30:22.932Z</time>
      </trkpt>
      <trkpt lat="47.09733" lon="6.79283">
        <ele>1206.0300000148</ele>
        <time>2021-07-03T09:30:55.071Z</time>
      </trkpt>
      <trkpt lat="47.0973" lon="6.79291">
        <ele>1206.62</ele>
        <time>2021-07-03T09:31:07.130Z</time>
      </trkpt>
      <trkpt lat="47.09726" lon="6.7931">
        <ele>1207.09</ele>
        <time>2021-07-03T09:31:22.671Z</time>
      </trkpt>
      <trkpt lat="47.09721" lon="6.79327">
        <ele>1207.09</ele>
        <time>2021-07-03T09:31:32.541Z</time>
      </trkpt>
      <trkpt lat="47.09714" lon="6.79351">
        <ele>1206.9700000003</ele>
        <time>2021-07-03T09:31:45.153Z</time>
      </trkpt>
      <trkpt lat="47.09704" lon="6.79386">
        <ele>1207.7900000028</ele>
        <time>2021-07-03T09:32:13.673Z</time>
      </trkpt>
      <trkpt lat="47.09702" lon="6.79396">
        <ele>1208.6099999924</ele>
        <time>2021-07-03T09:32:30.702Z</time>
      </trkpt>
      <trkpt lat="47.097" lon="6.79402">
        <ele>1208.3800000012</ele>
        <time>2021-07-03T09:32:31.620Z</time>
      </trkpt>
      <trkpt lat="47.09697" lon="6.79412">
        <ele>1207.44</ele>
        <time>2021-07-03T09:32:33.060Z</time>
      </trkpt>
      <trkpt lat="47.09697" lon="6.79417">
        <ele>1206.9699999788</ele>
        <time>2021-07-03T09:32:33.718Z</time>
      </trkpt>
      <trkpt lat="47.09697" lon="6.79421">
        <ele>1206.68</ele>
        <time>2021-07-03T09:32:34.245Z</time>
      </trkpt>
      <trkpt lat="47.09698" lon="6.79421">
        <ele>1206.68</ele>
        <time>2021-07-03T09:32:35.028Z</time>
      </trkpt>
      <trkpt lat="47.09698" lon="6.79421">
        <ele>1206.68</ele>
        <time>2021-07-03T09:32:35.028Z</time>
      </trkpt>
      <trkpt lat="47.09697" lon="6.79421">
        <ele>1206.68</ele>
        <time>2021-07-03T09:32:35.811Z</time>
      </trkpt>
      <trkpt lat="47.09697" lon="6.79427">
        <ele>1206.380000021</ele>
        <time>2021-07-03T09:32:36.601Z</time>
      </trkpt>
      <trkpt lat="47.09697" lon="6.79438">
        <ele>1205.8000000286</ele>
        <time>2021-07-03T09:32:38.050Z</time>
      </trkpt>
      <trkpt lat="47.09696" lon="6.79456">
        <ele>1204.98</ele>
        <time>2021-07-03T09:32:40.229Z</time>
      </trkpt>
      <trkpt lat="47.09695" lon="6.79468">
        <ele>1203.92</ele>
        <time>2021-07-03T09:32:41.821Z</time>
      </trkpt>
      <trkpt lat="47.09694" lon="6.79492">
        <ele>1202.0399999648</ele>
        <time>2021-07-03T09:32:44.988Z</time>
      </trkpt>
      <trkpt lat="47.09691" lon="6.79507">
        <ele>1200.850000038</ele>
        <time>2021-07-03T09:32:47.047Z</time>
      </trkpt>
      <trkpt lat="47.09687" lon="6.79529">
        <ele>1200.49</ele>
        <time>2021-07-03T09:32:51.143Z</time>
      </trkpt>
      <trkpt lat="47.09686" lon="6.79545">
        <ele>1199.8899999944</ele>
        <time>2021-07-03T09:32:53.273Z</time>
      </trkpt>
      <trkpt lat="47.09684" lon="6.79557">
        <ele>1199.35</ele>
        <time>2021-07-03T09:32:54.792Z</time>
      </trkpt>
      <trkpt lat="47.09682" lon="6.79575">
        <ele>1198.73</ele>
        <time>2021-07-03T09:32:57.312Z</time>
      </trkpt>
      <trkpt lat="47.09682" lon="6.79586">
        <ele>1197.84</ele>
        <time>2021-07-03T09:32:58.761Z</time>
      </trkpt>
      <trkpt lat="47.09682" lon="6.79599">
        <ele>1196.9499999539</ele>
        <time>2021-07-03T09:33:00.473Z</time>
      </trkpt>
      <trkpt lat="47.09682" lon="6.79609">
        <ele>1196.24</ele>
        <time>2021-07-03T09:33:01.790Z</time>
      </trkpt>
      <trkpt lat="47.09683" lon="6.7963">
        <ele>1194.7099999839</ele>
        <time>2021-07-03T09:33:04.562Z</time>
      </trkpt>
      <trkpt lat="47.09684" lon="6.79646">
        <ele>1194.01</ele>
        <time>2021-07-03T09:33:06.541Z</time>
      </trkpt>
      <trkpt lat="47.09684" lon="6.79662">
        <ele>1193.76</ele>
        <time>2021-07-03T09:33:09.428Z</time>
      </trkpt>
      <trkpt lat="47.09683" lon="6.79697">
        <ele>1191.06</ele>
        <time>2021-07-03T09:33:14.042Z</time>
      </trkpt>
      <trkpt lat="47.0968" lon="6.79711">
        <ele>1189.2900000038</ele>
        <time>2021-07-03T09:33:15.975Z</time>
      </trkpt>
      <trkpt lat="47.09679" lon="6.79731">
        <ele>1187.07</ele>
        <time>2021-07-03T09:33:18.617Z</time>
      </trkpt>
      <trkpt lat="47.09683" lon="6.79755">
        <ele>1184.57</ele>
        <time>2021-07-03T09:33:21.871Z</time>
      </trkpt>
      <trkpt lat="47.09687" lon="6.79763">
        <ele>1184.1400000326</ele>
        <time>2021-07-03T09:33:23.097Z</time>
      </trkpt>
      <trkpt lat="47.09689" lon="6.79798">
        <ele>1178.4099998692</ele>
        <time>2021-07-03T09:33:27.723Z</time>
      </trkpt>
      <trkpt lat="47.09686" lon="6.79813">
        <ele>1175.0299999676</ele>
        <time>2021-07-03T09:33:29.782Z</time>
      </trkpt>
      <trkpt lat="47.09687" lon="6.79823">
        <ele>1173.8000000244</ele>
        <time>2021-07-03T09:33:31.113Z</time>
      </trkpt>
      <trkpt lat="47.09676" lon="6.79853">
        <ele>1165.87</ele>
        <time>2021-07-03T09:33:35.601Z</time>
      </trkpt>
      <trkpt lat="47.0967" lon="6.79882">
        <ele>1160.52</ele>
        <time>2021-07-03T09:33:39.593Z</time>
      </trkpt>
      <trkpt lat="47.09663" lon="6.7992">
        <ele>1155.6599999757</ele>
        <time>2021-07-03T09:33:44.778Z</time>
      </trkpt>
      <trkpt lat="47.09659" lon="6.79944">
        <ele>1152.31</ele>
        <time>2021-07-03T09:33:48.032Z</time>
      </trkpt>
      <trkpt lat="47.09657" lon="6.79959">
        <ele>1150.7499999964</ele>
        <time>2021-07-03T09:33:50.046Z</time>
      </trkpt>
      <trkpt lat="47.09659" lon="6.79973">
        <ele>1148.74</ele>
        <time>2021-07-03T09:33:51.930Z</time>
      </trkpt>
      <trkpt lat="47.09663" lon="6.79989">
        <ele>1147.99</ele>
        <time>2021-07-03T09:33:54.018Z</time>
      </trkpt>
      <trkpt lat="47.09666" lon="6.80006">
        <ele>1147.210000012</ele>
        <time>2021-07-03T09:33:56.161Z</time>
      </trkpt>
      <trkpt lat="47.09669" lon="6.80028">
        <ele>1146.5299999667</ele>
        <time>2021-07-03T09:33:59.414Z</time>
      </trkpt>
      <trkpt lat="47.09672" lon="6.80044">
        <ele>1145.67</ele>
        <time>2021-07-03T09:34:01.600Z</time>
      </trkpt>
      <trkpt lat="47.09673" lon="6.80049">
        <ele>1145.3900000177</ele>
        <time>2021-07-03T09:34:02.286Z</time>
      </trkpt>
      <trkpt lat="47.09676" lon="6.80071">
        <ele>1144.48</ele>
        <time>2021-07-03T09:34:05.147Z</time>
      </trkpt>
      <trkpt lat="47.09678" lon="6.8009">
        <ele>1142.9299999936</ele>
        <time>2021-07-03T09:34:07.679Z</time>
      </trkpt>
      <trkpt lat="47.09679" lon="6.80103">
        <ele>1142.7600000034</ele>
        <time>2021-07-03T09:34:10.148Z</time>
      </trkpt>
      <trkpt lat="47.0968" lon="6.80119">
        <ele>1142.219999982</ele>
        <time>2021-07-03T09:34:12.379Z</time>
      </trkpt>
      <trkpt lat="47.09681" lon="6.80135">
        <ele>1141.32</ele>
        <time>2021-07-03T09:34:14.496Z</time>
      </trkpt>
      <trkpt lat="47.09695" lon="6.802">
        <ele>1138.12</ele>
        <time>2021-07-03T09:34:23.475Z</time>
      </trkpt>
      <trkpt lat="47.09702" lon="6.80226">
        <ele>1136.9200000115</ele>
        <time>2021-07-03T09:34:26.944Z</time>
      </trkpt>
      <trkpt lat="47.0971" lon="6.80252">
        <ele>1134.12</ele>
        <time>2021-07-03T09:34:30.702Z</time>
      </trkpt>
      <trkpt lat="47.09713" lon="6.80266">
        <ele>1132.52</ele>
        <time>2021-07-03T09:34:32.635Z</time>
      </trkpt>
      <trkpt lat="47.09717" lon="6.80288">
        <ele>1130.52</ele>
        <time>2021-07-03T09:34:35.634Z</time>
      </trkpt>
      <trkpt lat="47.09718" lon="6.803">
        <ele>1129.32</ele>
        <time>2021-07-03T09:34:37.226Z</time>
      </trkpt>
      <trkpt lat="47.0972" lon="6.80323">
        <ele>1128.1199999779</ele>
        <time>2021-07-03T09:34:40.280Z</time>
      </trkpt>
      <trkpt lat="47.09722" lon="6.80329">
        <ele>1127.7200000386</ele>
        <time>2021-07-03T09:34:41.160Z</time>
      </trkpt>
      <trkpt lat="47.09722" lon="6.8034">
        <ele>1127.3200000213</ele>
        <time>2021-07-03T09:34:42.635Z</time>
      </trkpt>
      <trkpt lat="47.09724" lon="6.80361">
        <ele>1125.7199999701</ele>
        <time>2021-07-03T09:34:45.428Z</time>
      </trkpt>
      <trkpt lat="47.09726" lon="6.80376">
        <ele>1124.53</ele>
        <time>2021-07-03T09:34:47.441Z</time>
      </trkpt>
      <trkpt lat="47.09726" lon="6.80383">
        <ele>1123.8799999297</ele>
        <time>2021-07-03T09:34:48.363Z</time>
      </trkpt>
      <trkpt lat="47.09727" lon="6.80388">
        <ele>1123.3299999867</ele>
        <time>2021-07-03T09:34:49.050Z</time>
      </trkpt>
      <trkpt lat="47.09728" lon="6.80393">
        <ele>1123.1900000063</ele>
        <time>2021-07-03T09:34:49.842Z</time>
      </trkpt>
      <trkpt lat="47.09729" lon="6.80407">
        <ele>1122.14</ele>
        <time>2021-07-03T09:34:51.696Z</time>
      </trkpt>
      <trkpt lat="47.09731" lon="6.80416">
        <ele>1121.24</ele>
        <time>2021-07-03T09:34:52.943Z</time>
      </trkpt>
      <trkpt lat="47.09734" lon="6.80428">
        <ele>1120.57</ele>
        <time>2021-07-03T09:34:54.626Z</time>
      </trkpt>
      <trkpt lat="47.09737" lon="6.80437">
        <ele>1120.2</ele>
        <time>2021-07-03T09:34:55.961Z</time>
      </trkpt>
      <trkpt lat="47.09739" lon="6.80444">
        <ele>1119.66</ele>
        <time>2021-07-03T09:34:56.961Z</time>
      </trkpt>
      <trkpt lat="47.09739" lon="6.80445">
        <ele>1119.55</ele>
        <time>2021-07-03T09:34:57.093Z</time>
      </trkpt>
      <trkpt lat="47.09738" lon="6.80455">
        <ele>1117.7700000474</ele>
        <time>2021-07-03T09:34:58.424Z</time>
      </trkpt>
      <trkpt lat="47.09734" lon="6.8048">
        <ele>1113.01</ele>
        <time>2021-07-03T09:35:01.806Z</time>
      </trkpt>
      <trkpt lat="47.09733" lon="6.80487">
        <ele>1112</ele>
        <time>2021-07-03T09:35:02.748Z</time>
      </trkpt>
      <trkpt lat="47.09733" lon="6.80488">
        <ele>1112</ele>
        <time>2021-07-03T09:35:03.281Z</time>
      </trkpt>
      <trkpt lat="47.09733" lon="6.80488">
        <ele>1112</ele>
        <time>2021-07-03T09:35:03.281Z</time>
      </trkpt>
      <trkpt lat="47.09733" lon="6.80487">
        <ele>1112</ele>
        <time>2021-07-03T09:35:03.814Z</time>
      </trkpt>
      <trkpt lat="47.09732" lon="6.80491">
        <ele>1110.99</ele>
        <time>2021-07-03T09:35:04.376Z</time>
      </trkpt>
      <trkpt lat="47.09729" lon="6.80501">
        <ele>1109.9</ele>
        <time>2021-07-03T09:35:05.815Z</time>
      </trkpt>
      <trkpt lat="47.09719" lon="6.80529">
        <ele>1105.549999973</ele>
        <time>2021-07-03T09:35:09.979Z</time>
      </trkpt>
      <trkpt lat="47.09717" lon="6.80533">
        <ele>1104.7000000847</ele>
        <time>2021-07-03T09:35:10.633Z</time>
      </trkpt>
      <trkpt lat="47.09715" lon="6.80545">
        <ele>1102.7599999613</ele>
        <time>2021-07-03T09:35:12.260Z</time>
      </trkpt>
      <trkpt lat="47.09716" lon="6.80556">
        <ele>1101.09</ele>
        <time>2021-07-03T09:35:13.722Z</time>
      </trkpt>
      <trkpt lat="47.0972" lon="6.80565">
        <ele>1099.9100000031</ele>
        <time>2021-07-03T09:35:15.138Z</time>
      </trkpt>
      <trkpt lat="47.09726" lon="6.80576">
        <ele>1102.1</ele>
        <time>2021-07-03T09:35:43.491Z</time>
      </trkpt>
      <trkpt lat="47.09735" lon="6.80587">
        <ele>1101.5</ele>
        <time>2021-07-03T09:35:45.920Z</time>
      </trkpt>
      <trkpt lat="47.0977" lon="6.80608">
        <ele>1099.5</ele>
        <time>2021-07-03T09:37:40.189Z</time>
      </trkpt>
      <trkpt lat="47.09795" lon="6.80624">
        <ele>1096.9</ele>
        <time>2021-07-03T09:39:01.144Z</time>
      </trkpt>
      <trkpt lat="47.09812" lon="6.80627">
        <ele>1096.9</ele>
        <time>2021-07-03T09:39:53.394Z</time>
      </trkpt>
      <trkpt lat="47.09817" lon="6.80641">
        <ele>1093.8</ele>
        <time>2021-07-03T09:40:24.992Z</time>
      </trkpt>
      <trkpt lat="47.09821" lon="6.80655">
        <ele>1090.6</ele>
        <time>2021-07-03T09:40:56.570Z</time>
      </trkpt>
      <trkpt lat="47.09822" lon="6.80675">
        <ele>1086.9</ele>
        <time>2021-07-03T09:41:39.705Z</time>
      </trkpt>
      <trkpt lat="47.09809" lon="6.80736">
        <ele>1081.2</ele>
        <time>2021-07-03T09:43:49.439Z</time>
      </trkpt>
      <trkpt lat="47.09803" lon="6.80746">
        <ele>1079.9</ele>
        <time>2021-07-03T09:44:16.831Z</time>
      </trkpt>
      <trkpt lat="47.09793" lon="6.80746">
        <ele>1079</ele>
        <time>2021-07-03T09:44:46.626Z</time>
      </trkpt>
      <trkpt lat="47.09787" lon="6.80736">
        <ele>1079.5</ele>
        <time>2021-07-03T09:45:17.048Z</time>
      </trkpt>
      <trkpt lat="47.09779" lon="6.80708">
        <ele>1081.8</ele>
        <time>2021-07-03T09:46:18.891Z</time>
      </trkpt>
      <trkpt lat="47.09771" lon="6.80704">
        <ele>1081.7</ele>
        <time>2021-07-03T09:46:42.976Z</time>
      </trkpt>
      <trkpt lat="47.09762" lon="6.8071">
        <ele>1080.5</ele>
        <time>2021-07-03T09:47:13.696Z</time>
      </trkpt>
      <trkpt lat="47.09752" lon="6.80722">
        <ele>1071.7300000792</ele>
        <time>2021-07-03T09:47:52.121Z</time>
      </trkpt>
      <trkpt lat="47.09745" lon="6.80735">
        <ele>1070.6099999867</ele>
        <time>2021-07-03T09:47:54.304Z</time>
      </trkpt>
      <trkpt lat="47.0974" lon="6.80749">
        <ele>1069.87</ele>
        <time>2021-07-03T09:47:56.386Z</time>
      </trkpt>
      <trkpt lat="47.09738" lon="6.80755">
        <ele>1069.5900000078</ele>
        <time>2021-07-03T09:47:57.225Z</time>
      </trkpt>
      <trkpt lat="47.09734" lon="6.8076">
        <ele>1069.4100000029</ele>
        <time>2021-07-03T09:47:58.459Z</time>
      </trkpt>
      <trkpt lat="47.0973" lon="6.80765">
        <ele>1069.23</ele>
        <time>2021-07-03T09:47:59.693Z</time>
      </trkpt>
      <trkpt lat="47.09728" lon="6.80767">
        <ele>1069.1700000006</ele>
        <time>2021-07-03T09:48:00.321Z</time>
      </trkpt>
      <trkpt lat="47.09707" lon="6.80792">
        <ele>1068.5899999977</ele>
        <time>2021-07-03T09:48:07.609Z</time>
      </trkpt>
      <trkpt lat="47.09702" lon="6.80799">
        <ele>1068.4000000069</ele>
        <time>2021-07-03T09:48:09.350Z</time>
      </trkpt>
      <trkpt lat="47.09697" lon="6.80806">
        <ele>1068.2000000015</ele>
        <time>2021-07-03T09:48:11.064Z</time>
      </trkpt>
      <trkpt lat="47.09685" lon="6.80794">
        <ele>1069.1700000068</ele>
        <time>2021-07-03T09:48:33.398Z</time>
      </trkpt>
      <trkpt lat="47.09674" lon="6.80784">
        <ele>1069.5</ele>
        <time>2021-07-03T09:48:46.614Z</time>
      </trkpt>
      <trkpt lat="47.09665" lon="6.80776">
        <ele>1070.18</ele>
        <time>2021-07-03T09:49:02.543Z</time>
      </trkpt>
      <trkpt lat="47.09656" lon="6.8077">
        <ele>1070.5100000075</ele>
        <time>2021-07-03T09:49:13.690Z</time>
      </trkpt>
      <trkpt lat="47.09648" lon="6.80766">
        <ele>1070.7399999935</ele>
        <time>2021-07-03T09:49:22.503Z</time>
      </trkpt>
      <trkpt lat="47.09625" lon="6.80756">
        <ele>1071.3200000032</ele>
        <time>2021-07-03T09:49:46.625Z</time>
      </trkpt>
      <trkpt lat="47.09615" lon="6.80751">
        <ele>1071.5</ele>
        <time>2021-07-03T09:49:56.425Z</time>
      </trkpt>
      <trkpt lat="47.09606" lon="6.80746">
        <ele>1071.8400000048</ele>
        <time>2021-07-03T09:50:07.563Z</time>
      </trkpt>
      <trkpt lat="47.09598" lon="6.80739">
        <ele>1072.1</ele>
        <time>2021-07-03T09:50:17.359Z</time>
      </trkpt>
      <trkpt lat="47.0959" lon="6.80731">
        <ele>1072.02</ele>
        <time>2021-07-03T09:50:20.436Z</time>
      </trkpt>
      <trkpt lat="47.09583" lon="6.80721">
        <ele>1072.25</ele>
        <time>2021-07-03T09:50:30.184Z</time>
      </trkpt>
      <trkpt lat="47.09575" lon="6.8071">
        <ele>1072.5299999983</ele>
        <time>2021-07-03T09:50:41.385Z</time>
      </trkpt>
      <trkpt lat="47.09566" lon="6.80692">
        <ele>1073.4400000015</ele>
        <time>2021-07-03T09:51:03.635Z</time>
      </trkpt>
      <trkpt lat="47.09559" lon="6.80678">
        <ele>1073.4999999992</ele>
        <time>2021-07-03T09:51:13.344Z</time>
      </trkpt>
      <trkpt lat="47.09543" lon="6.80644">
        <ele>1074.2400000014</ele>
        <time>2021-07-03T09:51:42.365Z</time>
      </trkpt>
      <trkpt lat="47.09534" lon="6.80626">
        <ele>1074.68</ele>
        <time>2021-07-03T09:51:58.562Z</time>
      </trkpt>
      <trkpt lat="47.09484" lon="6.8054">
        <ele>1074.82</ele>
        <time>2021-07-03T09:52:59.860Z</time>
      </trkpt>
      <trkpt lat="47.09484" lon="6.8054">
        <ele>1074.82</ele>
        <time>2021-07-03T09:52:59.860Z</time>
      </trkpt>
      <trkpt lat="47.09489" lon="6.80537">
        <ele>1076.13</ele>
        <time>2021-07-03T09:53:16.170Z</time>
      </trkpt>
      <trkpt lat="47.09485" lon="6.80529">
        <ele>1076.5299999981</ele>
        <time>2021-07-03T09:53:26.014Z</time>
      </trkpt>
      <trkpt lat="47.09478" lon="6.80516">
        <ele>1076.93</ele>
        <time>2021-07-03T09:53:39.096Z</time>
      </trkpt>
      <trkpt lat="47.09472" lon="6.80506">
        <ele>1076.93</ele>
        <time>2021-07-03T09:53:46.201Z</time>
      </trkpt>
      <trkpt lat="47.09468" lon="6.80497">
        <ele>1076.93</ele>
        <time>2021-07-03T09:53:51.929Z</time>
      </trkpt>
      <trkpt lat="47.09464" lon="6.80486">
        <ele>1076.93</ele>
        <time>2021-07-03T09:53:58.576Z</time>
      </trkpt>
      <trkpt lat="47.09453" lon="6.80468">
        <ele>1076.93</ele>
        <time>2021-07-03T09:54:11.468Z</time>
      </trkpt>
      <trkpt lat="47.09449" lon="6.80459">
        <ele>1076.93</ele>
        <time>2021-07-03T09:54:17.197Z</time>
      </trkpt>
      <trkpt lat="47.09436" lon="6.80436">
        <ele>1076.93</ele>
        <time>2021-07-03T09:54:33.131Z</time>
      </trkpt>
      <trkpt lat="47.09431" lon="6.80426">
        <ele>1076.93</ele>
        <time>2021-07-03T09:54:39.744Z</time>
      </trkpt>
      <trkpt lat="47.09424" lon="6.80403">
        <ele>1077.5299999937</ele>
        <time>2021-07-03T09:54:59.503Z</time>
      </trkpt>
      <trkpt lat="47.09415" lon="6.8037">
        <ele>1079.53</ele>
        <time>2021-07-03T09:55:41.647Z</time>
      </trkpt>
      <trkpt lat="47.0941" lon="6.80352">
        <ele>1081.13</ele>
        <time>2021-07-03T09:56:15.481Z</time>
      </trkpt>
      <trkpt lat="47.09405" lon="6.80341">
        <ele>1081.53</ele>
        <time>2021-07-03T09:56:27.367Z</time>
      </trkpt>
      <trkpt lat="47.09403" lon="6.80336">
        <ele>1081.9299999996</ele>
        <time>2021-07-03T09:56:35.509Z</time>
      </trkpt>
      <trkpt lat="47.09398" lon="6.8033">
        <ele>1082.3199999876</ele>
        <time>2021-07-03T09:56:44.995Z</time>
      </trkpt>
      <trkpt lat="47.09389" lon="6.80315">
        <ele>1083.13</ele>
        <time>2021-07-03T09:57:04.867Z</time>
      </trkpt>
      <trkpt lat="47.09378" lon="6.80299">
        <ele>1084.72999995</ele>
        <time>2021-07-03T09:57:37.450Z</time>
      </trkpt>
      <trkpt lat="47.09367" lon="6.80283">
        <ele>1085.53</ele>
        <time>2021-07-03T09:57:58.878Z</time>
      </trkpt>
      <trkpt lat="47.09349" lon="6.80255">
        <ele>1087.93</ele>
        <time>2021-07-03T09:58:48.191Z</time>
      </trkpt>
      <trkpt lat="47.09338" lon="6.80235">
        <ele>1089.5299999851</ele>
        <time>2021-07-03T09:59:21.075Z</time>
      </trkpt>
      <trkpt lat="47.09317" lon="6.80193">
        <ele>1091.9300000017</ele>
        <time>2021-07-03T10:00:15.992Z</time>
      </trkpt>
      <trkpt lat="47.093" lon="6.80157">
        <ele>1092.33</ele>
        <time>2021-07-03T10:00:42.615Z</time>
      </trkpt>
      <trkpt lat="47.09291" lon="6.8014">
        <ele>1092.33</ele>
        <time>2021-07-03T10:00:54.093Z</time>
      </trkpt>
      <trkpt lat="47.09288" lon="6.80134">
        <ele>1092.33</ele>
        <time>2021-07-03T10:00:58.061Z</time>
      </trkpt>
      <trkpt lat="47.09258" lon="6.80088">
        <ele>1092.33</ele>
        <time>2021-07-03T10:01:32.014Z</time>
      </trkpt>
      <trkpt lat="47.09248" lon="6.80073">
        <ele>1092.73</ele>
        <time>2021-07-03T10:01:47.062Z</time>
      </trkpt>
      <trkpt lat="47.09246" lon="6.80072">
        <ele>1092.73</ele>
        <time>2021-07-03T10:01:48.716Z</time>
      </trkpt>
      <trkpt lat="47.09242" lon="6.80072">
        <ele>1092.4700000248</ele>
        <time>2021-07-03T10:01:49.434Z</time>
      </trkpt>
      <trkpt lat="47.09238" lon="6.80066">
        <ele>1092.5</ele>
        <time>2021-07-03T10:01:54.136Z</time>
      </trkpt>
      <trkpt lat="47.09235" lon="6.80061">
        <ele>1092.5399999966</ele>
        <time>2021-07-03T10:01:58.000Z</time>
      </trkpt>
      <trkpt lat="47.09233" lon="6.80059">
        <ele>1092.5200000022</ele>
        <time>2021-07-03T10:01:58.770Z</time>
      </trkpt>
      <trkpt lat="47.09214" lon="6.80057">
        <ele>1092</ele>
        <time>2021-07-03T10:02:56.832Z</time>
      </trkpt>
      <trkpt lat="47.09193" lon="6.80042">
        <ele>1090.8</ele>
        <time>2021-07-03T10:04:06.393Z</time>
      </trkpt>
      <trkpt lat="47.09159" lon="6.79992">
        <ele>1089.9</ele>
        <time>2021-07-03T10:04:19.941Z</time>
      </trkpt>
      <trkpt lat="47.09152" lon="6.79939">
        <ele>1090.3</ele>
        <time>2021-07-03T10:04:51.453Z</time>
      </trkpt>
      <trkpt lat="47.09151" lon="6.79878">
        <ele>1092.9399999975</ele>
        <time>2021-07-03T10:05:54.109Z</time>
      </trkpt>
      <trkpt lat="47.09144" lon="6.79853">
        <ele>1093.4099999961</ele>
        <time>2021-07-03T10:06:12.917Z</time>
      </trkpt>
      <trkpt lat="47.09136" lon="6.79819">
        <ele>1093.6299999973</ele>
        <time>2021-07-03T10:06:33.811Z</time>
      </trkpt>
      <trkpt lat="47.09131" lon="6.79798">
        <ele>1093.4999999966</ele>
        <time>2021-07-03T10:06:38.607Z</time>
      </trkpt>
      <trkpt lat="47.09128" lon="6.79787">
        <ele>1093.45</ele>
        <time>2021-07-03T10:06:44.375Z</time>
      </trkpt>
      <trkpt lat="47.09125" lon="6.79778">
        <ele>1093.57</ele>
        <time>2021-07-03T10:06:50.743Z</time>
      </trkpt>
      <trkpt lat="47.09122" lon="6.7977">
        <ele>1093.5300000006</ele>
        <time>2021-07-03T10:06:55.174Z</time>
      </trkpt>
      <trkpt lat="47.09114" lon="6.79753">
        <ele>1093.83</ele>
        <time>2021-07-03T10:07:08.863Z</time>
      </trkpt>
      <trkpt lat="47.09111" lon="6.79745">
        <ele>1093.92</ele>
        <time>2021-07-03T10:07:14.476Z</time>
      </trkpt>
      <trkpt lat="47.09112" lon="6.79746">
        <ele>1093.92</ele>
        <time>2021-07-03T10:07:15.423Z</time>
      </trkpt>
      <trkpt lat="47.09112" lon="6.79746">
        <ele>1093.92</ele>
        <time>2021-07-03T10:07:15.423Z</time>
      </trkpt>
      <trkpt lat="47.09111" lon="6.79745">
        <ele>1093.92</ele>
        <time>2021-07-03T10:07:16.370Z</time>
      </trkpt>
      <trkpt lat="47.09102" lon="6.79723">
        <ele>1094.0199999994</ele>
        <time>2021-07-03T10:07:30.807Z</time>
      </trkpt>
      <trkpt lat="47.09094" lon="6.79704">
        <ele>1093.96</ele>
        <time>2021-07-03T10:07:42.037Z</time>
      </trkpt>
      <trkpt lat="47.09086" lon="6.79685">
        <ele>1094.06</ele>
        <time>2021-07-03T10:07:54.708Z</time>
      </trkpt>
      <trkpt lat="47.09073" lon="6.7966">
        <ele>1093.74</ele>
        <time>2021-07-03T10:08:00.952Z</time>
      </trkpt>
      <trkpt lat="47.09061" lon="6.79635">
        <ele>1093.2900000058</ele>
        <time>2021-07-03T10:08:06.557Z</time>
      </trkpt>
      <trkpt lat="47.09016" lon="6.79547">
        <ele>1091.03</ele>
        <time>2021-07-03T10:08:24.919Z</time>
      </trkpt>
      <trkpt lat="47.09002" lon="6.79527">
        <ele>1090.07</ele>
        <time>2021-07-03T10:08:28.910Z</time>
      </trkpt>
      <trkpt lat="47.08982" lon="6.79494">
        <ele>1088.1999999835</ele>
        <time>2021-07-03T10:08:34.430Z</time>
      </trkpt>
      <trkpt lat="47.08975" lon="6.79483">
        <ele>1087.6</ele>
        <time>2021-07-03T10:08:36.366Z</time>
      </trkpt>
      <trkpt lat="47.08958" lon="6.79457">
        <ele>1085.76</ele>
        <time>2021-07-03T10:08:41.115Z</time>
      </trkpt>
      <trkpt lat="47.08946" lon="6.79436">
        <ele>1084.4</ele>
        <time>2021-07-03T10:08:44.726Z</time>
      </trkpt>
      <trkpt lat="47.08937" lon="6.79419">
        <ele>1083.07</ele>
        <time>2021-07-03T10:08:47.563Z</time>
      </trkpt>
      <trkpt lat="47.0893" lon="6.79404">
        <ele>1081.7299999567</ele>
        <time>2021-07-03T10:08:49.958Z</time>
      </trkpt>
      <trkpt lat="47.08924" lon="6.79389">
        <ele>1080.4100000231</ele>
        <time>2021-07-03T10:08:52.250Z</time>
      </trkpt>
      <trkpt lat="47.08914" lon="6.79365">
        <ele>1078.0599999462</ele>
        <time>2021-07-03T10:08:55.956Z</time>
      </trkpt>
      <trkpt lat="47.08907" lon="6.79348">
        <ele>1076.44</ele>
        <time>2021-07-03T10:08:58.573Z</time>
      </trkpt>
      <trkpt lat="47.08893" lon="6.79317">
        <ele>1073.05</ele>
        <time>2021-07-03T10:09:03.474Z</time>
      </trkpt>
      <trkpt lat="47.08881" lon="6.79293">
        <ele>1070.1599999402</ele>
        <time>2021-07-03T10:09:07.396Z</time>
      </trkpt>
      <trkpt lat="47.08868" lon="6.79272">
        <ele>1066.12</ele>
        <time>2021-07-03T10:09:11.135Z</time>
      </trkpt>
      <trkpt lat="47.08858" lon="6.79256">
        <ele>1063.609999947</ele>
        <time>2021-07-03T10:09:13.996Z</time>
      </trkpt>
      <trkpt lat="47.08853" lon="6.79249">
        <ele>1062.35</ele>
        <time>2021-07-03T10:09:15.332Z</time>
      </trkpt>
      <trkpt lat="47.08849" lon="6.79245">
        <ele>1061.7400000084</ele>
        <time>2021-07-03T10:09:16.268Z</time>
      </trkpt>
      <trkpt lat="47.08841" lon="6.7924">
        <ele>1060.95</ele>
        <time>2021-07-03T10:09:17.950Z</time>
      </trkpt>
      <trkpt lat="47.08841" lon="6.79235">
        <ele>1061.49</ele>
        <time>2021-07-03T10:09:28.231Z</time>
      </trkpt>
      <trkpt lat="47.08839" lon="6.79232">
        <ele>1061.91</ele>
        <time>2021-07-03T10:09:36.864Z</time>
      </trkpt>
      <trkpt lat="47.08822" lon="6.79199">
        <ele>1072.9600000015</ele>
        <time>2021-07-03T10:11:01.947Z</time>
      </trkpt>
      <trkpt lat="47.0882" lon="6.79192">
        <ele>1073.6999999749</ele>
        <time>2021-07-03T10:11:17.555Z</time>
      </trkpt>
      <trkpt lat="47.08815" lon="6.79162">
        <ele>1075.6</ele>
        <time>2021-07-03T10:11:56.690Z</time>
      </trkpt>
      <trkpt lat="47.08799" lon="6.79117">
        <ele>1075.6000000008</ele>
        <time>2021-07-03T10:12:23.752Z</time>
      </trkpt>
      <trkpt lat="47.08781" lon="6.79073">
        <ele>1075.8</ele>
        <time>2021-07-03T10:12:52.628Z</time>
      </trkpt>
      <trkpt lat="47.08782" lon="6.79074">
        <ele>1075.8</ele>
        <time>2021-07-03T10:12:53.575Z</time>
      </trkpt>
      <trkpt lat="47.08782" lon="6.79074">
        <ele>1075.8</ele>
        <time>2021-07-03T10:12:53.575Z</time>
      </trkpt>
      <trkpt lat="47.08781" lon="6.79073">
        <ele>1075.8</ele>
        <time>2021-07-03T10:12:54.522Z</time>
      </trkpt>
      <trkpt lat="47.08778" lon="6.79066">
        <ele>1075.9999999996</ele>
        <time>2021-07-03T10:13:01.057Z</time>
      </trkpt>
      <trkpt lat="47.08762" lon="6.79026">
        <ele>1075.17</ele>
        <time>2021-07-03T10:13:09.126Z</time>
      </trkpt>
      <trkpt lat="47.08757" lon="6.78994">
        <ele>1074.56</ele>
        <time>2021-07-03T10:13:14.774Z</time>
      </trkpt>
      <trkpt lat="47.0873" lon="6.78944">
        <ele>1079.4599999643</ele>
        <time>2021-07-03T10:14:55.811Z</time>
      </trkpt>
      <trkpt lat="47.08705" lon="6.78875">
        <ele>1080</ele>
        <time>2021-07-03T10:15:41.746Z</time>
      </trkpt>
      <trkpt lat="47.08682" lon="6.78822">
        <ele>1079.9500000079</ele>
        <time>2021-07-03T10:16:14.660Z</time>
      </trkpt>
      <trkpt lat="47.08679" lon="6.78817">
        <ele>1080.5299999535</ele>
        <time>2021-07-03T10:16:27.334Z</time>
      </trkpt>
      <trkpt lat="47.08663" lon="6.78738">
        <ele>1079.7</ele>
        <time>2021-07-03T10:16:43.727Z</time>
      </trkpt>
      <trkpt lat="47.0866" lon="6.78739">
        <ele>1079.09</ele>
        <time>2021-07-03T10:16:44.322Z</time>
      </trkpt>
      <trkpt lat="47.08655" lon="6.7874">
        <ele>1078.6399999943</ele>
        <time>2021-07-03T10:16:45.298Z</time>
      </trkpt>
      <trkpt lat="47.08652" lon="6.7874">
        <ele>1078.55</ele>
        <time>2021-07-03T10:16:46.034Z</time>
      </trkpt>
      <trkpt lat="47.08649" lon="6.78738">
        <ele>1078.370000007</ele>
        <time>2021-07-03T10:16:46.677Z</time>
      </trkpt>
      <trkpt lat="47.08646" lon="6.78736">
        <ele>1078.37</ele>
        <time>2021-07-03T10:16:49.256Z</time>
      </trkpt>
      <trkpt lat="47.08644" lon="6.78735">
        <ele>1078.37</ele>
        <time>2021-07-03T10:16:50.910Z</time>
      </trkpt>
      <trkpt lat="47.08641" lon="6.78735">
        <ele>1078.1900000223</ele>
        <time>2021-07-03T10:16:51.470Z</time>
      </trkpt>
      <trkpt lat="47.08638" lon="6.78736">
        <ele>1078.01</ele>
        <time>2021-07-03T10:16:52.052Z</time>
      </trkpt>
      <trkpt lat="47.08636" lon="6.78739">
        <ele>1077.8300000037</ele>
        <time>2021-07-03T10:16:52.573Z</time>
      </trkpt>
      <trkpt lat="47.08634" lon="6.78734">
        <ele>1078.01</ele>
        <time>2021-07-03T10:16:57.826Z</time>
      </trkpt>
      <trkpt lat="47.08629" lon="6.78727">
        <ele>1078.46</ele>
        <time>2021-07-03T10:17:08.324Z</time>
      </trkpt>
      <trkpt lat="47.08624" lon="6.78724">
        <ele>1079.0899999925</ele>
        <time>2021-07-03T10:17:21.449Z</time>
      </trkpt>
      <trkpt lat="47.08614" lon="6.78717">
        <ele>1079.45</ele>
        <time>2021-07-03T10:17:33.798Z</time>
      </trkpt>
      <trkpt lat="47.08604" lon="6.7871">
        <ele>1079.45</ele>
        <time>2021-07-03T10:17:42.471Z</time>
      </trkpt>
      <trkpt lat="47.086" lon="6.78705">
        <ele>1079.45</ele>
        <time>2021-07-03T10:17:46.583Z</time>
      </trkpt>
      <trkpt lat="47.08597" lon="6.78699">
        <ele>1079.55</ele>
        <time>2021-07-03T10:17:51.427Z</time>
      </trkpt>
      <trkpt lat="47.08592" lon="6.78688">
        <ele>1079.55</ele>
        <time>2021-07-03T10:17:58.477Z</time>
      </trkpt>
      <trkpt lat="47.08589" lon="6.78684">
        <ele>1079.45</ele>
        <time>2021-07-03T10:17:59.531Z</time>
      </trkpt>
      <trkpt lat="47.08586" lon="6.78681">
        <ele>1079.18</ele>
        <time>2021-07-03T10:18:00.233Z</time>
      </trkpt>
      <trkpt lat="47.08582" lon="6.78682">
        <ele>1078.91</ele>
        <time>2021-07-03T10:18:00.953Z</time>
      </trkpt>
      <trkpt lat="47.08575" lon="6.78686">
        <ele>1077.92</ele>
        <time>2021-07-03T10:18:02.406Z</time>
      </trkpt>
      <trkpt lat="47.08569" lon="6.78689">
        <ele>1077.23</ele>
        <time>2021-07-03T10:18:03.632Z</time>
      </trkpt>
      <trkpt lat="47.08557" lon="6.78691">
        <ele>1075.48</ele>
        <time>2021-07-03T10:18:05.969Z</time>
      </trkpt>
      <trkpt lat="47.08546" lon="6.7869">
        <ele>1074.2</ele>
        <time>2021-07-03T10:18:08.101Z</time>
      </trkpt>
      <trkpt lat="47.08528" lon="6.78688">
        <ele>1072.55</ele>
        <time>2021-07-03T10:18:11.594Z</time>
      </trkpt>
      <trkpt lat="47.08513" lon="6.7869">
        <ele>1070.85</ele>
        <time>2021-07-03T10:18:14.508Z</time>
      </trkpt>
      <trkpt lat="47.08504" lon="6.78688">
        <ele>1070.85</ele>
        <time>2021-07-03T10:18:21.634Z</time>
      </trkpt>
      <trkpt lat="47.08494" lon="6.78682">
        <ele>1070.25</ele>
        <time>2021-07-03T10:18:23.725Z</time>
      </trkpt>
      <trkpt lat="47.08495" lon="6.78683">
        <ele>1070.25</ele>
        <time>2021-07-03T10:18:24.672Z</time>
      </trkpt>
      <trkpt lat="47.08495" lon="6.78683">
        <ele>1070.25</ele>
        <time>2021-07-03T10:18:24.672Z</time>
      </trkpt>
      <trkpt lat="47.08494" lon="6.78682">
        <ele>1070.25</ele>
        <time>2021-07-03T10:18:25.619Z</time>
      </trkpt>
      <trkpt lat="47.08492" lon="6.78681">
        <ele>1069.65</ele>
        <time>2021-07-03T10:18:26.028Z</time>
      </trkpt>
      <trkpt lat="47.08476" lon="6.78675">
        <ele>1066.65</ele>
        <time>2021-07-03T10:18:29.223Z</time>
      </trkpt>
      <trkpt lat="47.08452" lon="6.78671">
        <ele>1063.44</ele>
        <time>2021-07-03T10:18:33.896Z</time>
      </trkpt>
      <trkpt lat="47.0842" lon="6.78664">
        <ele>1059.14</ele>
        <time>2021-07-03T10:18:40.155Z</time>
      </trkpt>
      <trkpt lat="47.08396" lon="6.78658">
        <ele>1056.56</ele>
        <time>2021-07-03T10:18:44.866Z</time>
      </trkpt>
      <trkpt lat="47.08388" lon="6.78656">
        <ele>1054.9499998862</ele>
        <time>2021-07-03T10:18:46.436Z</time>
      </trkpt>
      <trkpt lat="47.08384" lon="6.78656">
        <ele>1053.9300000815</ele>
        <time>2021-07-03T10:18:47.210Z</time>
      </trkpt>
      <trkpt lat="47.08359" lon="6.78658">
        <ele>1048.76</ele>
        <time>2021-07-03T10:18:52.054Z</time>
      </trkpt>
      <trkpt lat="47.08345" lon="6.7866">
        <ele>1046.96</ele>
        <time>2021-07-03T10:18:54.775Z</time>
      </trkpt>
      <trkpt lat="47.0833" lon="6.78656">
        <ele>1046.7099999698</ele>
        <time>2021-07-03T10:18:59.140Z</time>
      </trkpt>
      <trkpt lat="47.0832" lon="6.78655">
        <ele>1045.6099999977</ele>
        <time>2021-07-03T10:19:01.079Z</time>
      </trkpt>
      <trkpt lat="47.08311" lon="6.78653">
        <ele>1044.33</ele>
        <time>2021-07-03T10:19:02.841Z</time>
      </trkpt>
      <trkpt lat="47.08299" lon="6.78648">
        <ele>1042.679999953</ele>
        <time>2021-07-03T10:19:05.254Z</time>
      </trkpt>
      <trkpt lat="47.0829" lon="6.78641">
        <ele>1040.12</ele>
        <time>2021-07-03T10:19:07.224Z</time>
      </trkpt>
      <trkpt lat="47.08285" lon="6.78636">
        <ele>1039.4499999473</ele>
        <time>2021-07-03T10:19:08.395Z</time>
      </trkpt>
      <trkpt lat="47.0828" lon="6.78633">
        <ele>1038.81</ele>
        <time>2021-07-03T10:19:09.440Z</time>
      </trkpt>
      <trkpt lat="47.08275" lon="6.78633">
        <ele>1038.2200000489</ele>
        <time>2021-07-03T10:19:10.407Z</time>
      </trkpt>
      <trkpt lat="47.0827" lon="6.78635">
        <ele>1037.72</ele>
        <time>2021-07-03T10:19:11.410Z</time>
      </trkpt>
      <trkpt lat="47.08273" lon="6.78623">
        <ele>1038.4600000174</ele>
        <time>2021-07-03T10:19:26.873Z</time>
      </trkpt>
      <trkpt lat="47.08262" lon="6.78622">
        <ele>1037.51</ele>
        <time>2021-07-03T10:19:29.006Z</time>
      </trkpt>
      <trkpt lat="47.08257" lon="6.78621">
        <ele>1037.34</ele>
        <time>2021-07-03T10:19:30.198Z</time>
      </trkpt>
      <trkpt lat="47.08251" lon="6.78619">
        <ele>1037.1499999961</ele>
        <time>2021-07-03T10:19:31.694Z</time>
      </trkpt>
      <trkpt lat="47.08247" lon="6.78615">
        <ele>1037.0900000016</ele>
        <time>2021-07-03T10:19:33.151Z</time>
      </trkpt>
      <trkpt lat="47.08243" lon="6.78611">
        <ele>1036.97</ele>
        <time>2021-07-03T10:19:34.408Z</time>
      </trkpt>
      <trkpt lat="47.08236" lon="6.78602">
        <ele>1036.75</ele>
        <time>2021-07-03T10:19:36.855Z</time>
      </trkpt>
      <trkpt lat="47.0823" lon="6.78591">
        <ele>1036.199999962</ele>
        <time>2021-07-03T10:19:38.686Z</time>
      </trkpt>
      <trkpt lat="47.08226" lon="6.78583">
        <ele>1035.7000000305</ele>
        <time>2021-07-03T10:19:39.993Z</time>
      </trkpt>
      <trkpt lat="47.08219" lon="6.78573">
        <ele>1034.6499999677</ele>
        <time>2021-07-03T10:19:41.883Z</time>
      </trkpt>
      <trkpt lat="47.08215" lon="6.78578">
        <ele>1033.9900000018</ele>
        <time>2021-07-03T10:19:42.899Z</time>
      </trkpt>
      <trkpt lat="47.0821" lon="6.78582">
        <ele>1032.95</ele>
        <time>2021-07-03T10:19:44.000Z</time>
      </trkpt>
      <trkpt lat="47.08196" lon="6.78589">
        <ele>1031.5199999857</ele>
        <time>2021-07-03T10:19:46.862Z</time>
      </trkpt>
      <trkpt lat="47.08187" lon="6.78593">
        <ele>1030.98</ele>
        <time>2021-07-03T10:19:48.654Z</time>
      </trkpt>
      <trkpt lat="47.08142" lon="6.78618">
        <ele>1028.62</ele>
        <time>2021-07-03T10:19:58.495Z</time>
      </trkpt>
      <trkpt lat="47.08076" lon="6.78654">
        <ele>1025.28</ele>
        <time>2021-07-03T10:20:13.103Z</time>
      </trkpt>
      <trkpt lat="47.08004" lon="6.78692">
        <ele>1021.08</ele>
        <time>2021-07-03T10:20:27.992Z</time>
      </trkpt>
      <trkpt lat="47.07998" lon="6.78688">
        <ele>1019.4</ele>
        <time>2021-07-03T10:20:29.321Z</time>
      </trkpt>
      <trkpt lat="47.07995" lon="6.78679">
        <ele>1019.5</ele>
        <time>2021-07-03T10:20:48.016Z</time>
      </trkpt>
      <trkpt lat="47.07981" lon="6.78661">
        <ele>1019.3</ele>
        <time>2021-07-03T10:21:46.058Z</time>
      </trkpt>
      <trkpt lat="47.07966" lon="6.78623">
        <ele>1019.8</ele>
        <time>2021-07-03T10:23:14.408Z</time>
      </trkpt>
      <trkpt lat="47.0795" lon="6.78566">
        <ele>1019.6</ele>
        <time>2021-07-03T10:25:21.833Z</time>
      </trkpt>
      <trkpt lat="47.0794" lon="6.78481">
        <ele>1017.9</ele>
        <time>2021-07-03T10:25:36.444Z</time>
      </trkpt>
      <trkpt lat="47.07929" lon="6.78475">
        <ele>1017.1</ele>
        <time>2021-07-03T10:26:11.523Z</time>
      </trkpt>
      <trkpt lat="47.07902" lon="6.78483">
        <ele>1015.7</ele>
        <time>2021-07-03T10:27:34.605Z</time>
      </trkpt>
      <trkpt lat="47.0788" lon="6.78463">
        <ele>1016.36</ele>
        <time>2021-07-03T10:28:00.778Z</time>
      </trkpt>
      <trkpt lat="47.0788" lon="6.78458">
        <ele>1016.36</ele>
        <time>2021-07-03T10:28:03.444Z</time>
      </trkpt>
      <trkpt lat="47.07879" lon="6.78453">
        <ele>1016.36</ele>
        <time>2021-07-03T10:28:06.222Z</time>
      </trkpt>
      <trkpt lat="47.07869" lon="6.78417">
        <ele>1016.7499999963</ele>
        <time>2021-07-03T10:28:30.184Z</time>
      </trkpt>
      <trkpt lat="47.0786" lon="6.7838">
        <ele>1017.4799999977</ele>
        <time>2021-07-03T10:28:58.110Z</time>
      </trkpt>
      <trkpt lat="47.07853" lon="6.78346">
        <ele>1017.02</ele>
        <time>2021-07-03T10:29:04.822Z</time>
      </trkpt>
      <trkpt lat="47.0785" lon="6.78332">
        <ele>1017.26</ele>
        <time>2021-07-03T10:29:14.853Z</time>
      </trkpt>
      <trkpt lat="47.07844" lon="6.78306">
        <ele>1017.6499999918</ele>
        <time>2021-07-03T10:29:32.947Z</time>
      </trkpt>
      <trkpt lat="47.07836" lon="6.78269">
        <ele>1018.140000001</ele>
        <time>2021-07-03T10:29:57.877Z</time>
      </trkpt>
      <trkpt lat="47.07829" lon="6.78249">
        <ele>1018.2200000039</ele>
        <time>2021-07-03T10:30:10.468Z</time>
      </trkpt>
      <trkpt lat="47.07825" lon="6.78237">
        <ele>1018.3</ele>
        <time>2021-07-03T10:30:18.215Z</time>
      </trkpt>
      <trkpt lat="47.07818" lon="6.78213">
        <ele>1018.4399999977</ele>
        <time>2021-07-03T10:30:33.217Z</time>
      </trkpt>
      <trkpt lat="47.07805" lon="6.78177">
        <ele>1018.73</ele>
        <time>2021-07-03T10:30:57.243Z</time>
      </trkpt>
      <trkpt lat="47.07796" lon="6.7815">
        <ele>1018.9000000001</ele>
        <time>2021-07-03T10:31:14.589Z</time>
      </trkpt>
      <trkpt lat="47.07791" lon="6.78134">
        <ele>1018.93</ele>
        <time>2021-07-03T10:31:24.196Z</time>
      </trkpt>
      <trkpt lat="47.0777" lon="6.78071">
        <ele>1019.64</ele>
        <time>2021-07-03T10:32:07.487Z</time>
      </trkpt>
      <trkpt lat="47.07754" lon="6.78027">
        <ele>1020.73</ele>
        <time>2021-07-03T10:32:45.152Z</time>
      </trkpt>
      <trkpt lat="47.07752" lon="6.78021">
        <ele>1021.28</ele>
        <time>2021-07-03T10:32:56.782Z</time>
      </trkpt>
      <trkpt lat="47.07753" lon="6.78021">
        <ele>1021.28</ele>
        <time>2021-07-03T10:32:57.565Z</time>
      </trkpt>
      <trkpt lat="47.07753" lon="6.78021">
        <ele>1021.28</ele>
        <time>2021-07-03T10:32:57.565Z</time>
      </trkpt>
      <trkpt lat="47.07752" lon="6.78021">
        <ele>1021.28</ele>
        <time>2021-07-03T10:32:58.348Z</time>
      </trkpt>
      <trkpt lat="47.07731" lon="6.77958">
        <ele>1021.8400000008</ele>
        <time>2021-07-03T10:33:40.245Z</time>
      </trkpt>
      <trkpt lat="47.0773" lon="6.77956">
        <ele>1021.9399999972</ele>
        <time>2021-07-03T10:33:42.706Z</time>
      </trkpt>
      <trkpt lat="47.07718" lon="6.7792">
        <ele>1023.04</ele>
        <time>2021-07-03T10:34:16.580Z</time>
      </trkpt>
      <trkpt lat="47.07704" lon="6.77886">
        <ele>1023.85</ele>
        <time>2021-07-03T10:34:45.767Z</time>
      </trkpt>
      <trkpt lat="47.07694" lon="6.77865">
        <ele>1024.53</ele>
        <time>2021-07-03T10:35:07.012Z</time>
      </trkpt>
      <trkpt lat="47.07686" lon="6.77847">
        <ele>1025.62</ele>
        <time>2021-07-03T10:35:30.876Z</time>
      </trkpt>
      <trkpt lat="47.07677" lon="6.77828">
        <ele>1026.94</ele>
        <time>2021-07-03T10:35:58.579Z</time>
      </trkpt>
      <trkpt lat="47.07668" lon="6.77812">
        <ele>1028.07</ele>
        <time>2021-07-03T10:36:22.651Z</time>
      </trkpt>
      <trkpt lat="47.0766" lon="6.77798">
        <ele>1029.61</ele>
        <time>2021-07-03T10:36:55.614Z</time>
      </trkpt>
      <trkpt lat="47.07653" lon="6.77787">
        <ele>1030.7</ele>
        <time>2021-07-03T10:37:17.856Z</time>
      </trkpt>
      <trkpt lat="47.07632" lon="6.77761">
        <ele>1032.94</ele>
        <time>2021-07-03T10:38:05.258Z</time>
      </trkpt>
      <trkpt lat="47.07623" lon="6.77752">
        <ele>1033.38</ele>
        <time>2021-07-03T10:38:18.792Z</time>
      </trkpt>
      <trkpt lat="47.07587" lon="6.77708">
        <ele>1033.47</ele>
        <time>2021-07-03T10:38:56.120Z</time>
      </trkpt>
      <trkpt lat="47.07566" lon="6.7768">
        <ele>1032.99</ele>
        <time>2021-07-03T10:39:04.191Z</time>
      </trkpt>
      <trkpt lat="47.07555" lon="6.77664">
        <ele>1032.1499999953</ele>
        <time>2021-07-03T10:39:07.220Z</time>
      </trkpt>
      <trkpt lat="47.07553" lon="6.77661">
        <ele>1032.0900000005</ele>
        <time>2021-07-03T10:39:07.995Z</time>
      </trkpt>
      <trkpt lat="47.07551" lon="6.77656">
        <ele>1031.9799999991</ele>
        <time>2021-07-03T10:39:08.987Z</time>
      </trkpt>
      <trkpt lat="47.07549" lon="6.77653">
        <ele>1031.9500000072</ele>
        <time>2021-07-03T10:39:09.869Z</time>
      </trkpt>
      <trkpt lat="47.07549" lon="6.77649">
        <ele>1032</ele>
        <time>2021-07-03T10:39:12.433Z</time>
      </trkpt>
      <trkpt lat="47.07549" lon="6.77646">
        <ele>1032.069999989</ele>
        <time>2021-07-03T10:39:14.764Z</time>
      </trkpt>
      <trkpt lat="47.07549" lon="6.77643">
        <ele>1032.1899999786</ele>
        <time>2021-07-03T10:39:17.731Z</time>
      </trkpt>
      <trkpt lat="47.07552" lon="6.77633">
        <ele>1032.72</ele>
        <time>2021-07-03T10:39:29.564Z</time>
      </trkpt>
      <trkpt lat="47.07552" lon="6.77629">
        <ele>1032.9899999744</ele>
        <time>2021-07-03T10:39:35.062Z</time>
      </trkpt>
      <trkpt lat="47.07553" lon="6.77624">
        <ele>1033.22</ele>
        <time>2021-07-03T10:39:40.443Z</time>
      </trkpt>
      <trkpt lat="47.07552" lon="6.77614">
        <ele>1033.77</ele>
        <time>2021-07-03T10:39:52.162Z</time>
      </trkpt>
      <trkpt lat="47.07551" lon="6.77602">
        <ele>1034.74</ele>
        <time>2021-07-03T10:40:12.446Z</time>
      </trkpt>
      <trkpt lat="47.07548" lon="6.77589">
        <ele>1035.33</ele>
        <time>2021-07-03T10:40:26.446Z</time>
      </trkpt>
      <trkpt lat="47.07544" lon="6.77573">
        <ele>1036.03</ele>
        <time>2021-07-03T10:40:43.487Z</time>
      </trkpt>
      <trkpt lat="47.07536" lon="6.77549">
        <ele>1038.19</ele>
        <time>2021-07-03T10:41:28.790Z</time>
      </trkpt>
      <trkpt lat="47.07519" lon="6.77495">
        <ele>1042.78</ele>
        <time>2021-07-03T10:43:03.550Z</time>
      </trkpt>
      <trkpt lat="47.07524" lon="6.77512">
        <ele>1040.48</ele>
        <time>2021-07-03T10:43:05.989Z</time>
      </trkpt>
      <trkpt lat="47.07525" lon="6.77513">
        <ele>1040.48</ele>
        <time>2021-07-03T10:43:06.937Z</time>
      </trkpt>
      <trkpt lat="47.07525" lon="6.77513">
        <ele>1040.48</ele>
        <time>2021-07-03T10:43:06.937Z</time>
      </trkpt>
      <trkpt lat="47.07524" lon="6.77512">
        <ele>1040.48</ele>
        <time>2021-07-03T10:43:07.884Z</time>
      </trkpt>
      <trkpt lat="47.07519" lon="6.77495">
        <ele>1042.78</ele>
        <time>2021-07-03T10:43:45.967Z</time>
      </trkpt>
      <trkpt lat="47.07513" lon="6.77475">
        <ele>1044.330000019</ele>
        <time>2021-07-03T10:44:17.544Z</time>
      </trkpt>
      <trkpt lat="47.0751" lon="6.77461">
        <ele>1045.02</ele>
        <time>2021-07-03T10:44:33.176Z</time>
      </trkpt>
      <trkpt lat="47.07508" lon="6.77442">
        <ele>1045.8599999856</ele>
        <time>2021-07-03T10:44:52.933Z</time>
      </trkpt>
      <trkpt lat="47.07506" lon="6.77423">
        <ele>1047.21</ele>
        <time>2021-07-03T10:45:20.422Z</time>
      </trkpt>
      <trkpt lat="47.07505" lon="6.77405">
        <ele>1048.75</ele>
        <time>2021-07-03T10:45:53.618Z</time>
      </trkpt>
      <trkpt lat="47.07506" lon="6.77386">
        <ele>1050.15</ele>
        <time>2021-07-03T10:46:22.236Z</time>
      </trkpt>
      <trkpt lat="47.07508" lon="6.77356">
        <ele>1052.83</ele>
        <time>2021-07-03T10:47:21.747Z</time>
      </trkpt>
      <trkpt lat="47.0751" lon="6.77336">
        <ele>1054.36</ele>
        <time>2021-07-03T10:47:53.188Z</time>
      </trkpt>
      <trkpt lat="47.07512" lon="6.7732">
        <ele>1055.1999999806</ele>
        <time>2021-07-03T10:48:11.442Z</time>
      </trkpt>
      <trkpt lat="47.07513" lon="6.77299">
        <ele>1056.3899999994</ele>
        <time>2021-07-03T10:48:36.484Z</time>
      </trkpt>
      <trkpt lat="47.07515" lon="6.77264">
        <ele>1057.8599999892</ele>
        <time>2021-07-03T10:49:11.887Z</time>
      </trkpt>
      <trkpt lat="47.07515" lon="6.77226">
        <ele>1058.650000001</ele>
        <time>2021-07-03T10:49:40.012Z</time>
      </trkpt>
      <trkpt lat="47.07517" lon="6.77212">
        <ele>1058.75</ele>
        <time>2021-07-03T10:49:48.431Z</time>
      </trkpt>
      <trkpt lat="47.07518" lon="6.77204">
        <ele>1058.8000000005</ele>
        <time>2021-07-03T10:49:53.158Z</time>
      </trkpt>
      <trkpt lat="47.0752" lon="6.77198">
        <ele>1058.81</ele>
        <time>2021-07-03T10:49:56.793Z</time>
      </trkpt>
      <trkpt lat="47.07522" lon="6.7719">
        <ele>1058.8200000039</ele>
        <time>2021-07-03T10:50:01.410Z</time>
      </trkpt>
      <trkpt lat="47.07525" lon="6.77184">
        <ele>1058.9200000031</ele>
        <time>2021-07-03T10:50:06.254Z</time>
      </trkpt>
      <trkpt lat="47.07528" lon="6.77178">
        <ele>1059.0499999972</ele>
        <time>2021-07-03T10:50:11.441Z</time>
      </trkpt>
      <trkpt lat="47.07533" lon="6.77171">
        <ele>1059.23</ele>
        <time>2021-07-03T10:50:18.545Z</time>
      </trkpt>
      <trkpt lat="47.07536" lon="6.77166">
        <ele>1059.2499999976</ele>
        <time>2021-07-03T10:50:22.248Z</time>
      </trkpt>
      <trkpt lat="47.07541" lon="6.7716">
        <ele>1058.97</ele>
        <time>2021-07-03T10:50:23.638Z</time>
      </trkpt>
      <trkpt lat="47.07549" lon="6.77154">
        <ele>1058.23</ele>
        <time>2021-07-03T10:50:25.376Z</time>
      </trkpt>
      <trkpt lat="47.07552" lon="6.77152">
        <ele>1057.91</ele>
        <time>2021-07-03T10:50:26.013Z</time>
      </trkpt>
      <trkpt lat="47.07555" lon="6.77152">
        <ele>1057.5300000024</ele>
        <time>2021-07-03T10:50:26.594Z</time>
      </trkpt>
      <trkpt lat="47.07559" lon="6.77151">
        <ele>1057.1500000298</ele>
        <time>2021-07-03T10:50:27.379Z</time>
      </trkpt>
      <trkpt lat="47.07566" lon="6.77151">
        <ele>1056.6799999945</ele>
        <time>2021-07-03T10:50:28.733Z</time>
      </trkpt>
      <trkpt lat="47.07571" lon="6.77151">
        <ele>1056.5499999979</ele>
        <time>2021-07-03T10:50:30.014Z</time>
      </trkpt>
      <trkpt lat="47.07574" lon="6.7715">
        <ele>1056.5099999973</ele>
        <time>2021-07-03T10:50:30.933Z</time>
      </trkpt>
      <trkpt lat="47.07576" lon="6.77147">
        <ele>1056.4600000012</ele>
        <time>2021-07-03T10:50:31.741Z</time>
      </trkpt>
      <trkpt lat="47.07578" lon="6.77145">
        <ele>1056.48</ele>
        <time>2021-07-03T10:50:33.791Z</time>
      </trkpt>
      <trkpt lat="47.07579" lon="6.77141">
        <ele>1056.52</ele>
        <time>2021-07-03T10:50:36.391Z</time>
      </trkpt>
      <trkpt lat="47.0758" lon="6.77138">
        <ele>1056.59</ele>
        <time>2021-07-03T10:50:38.871Z</time>
      </trkpt>
      <trkpt lat="47.07581" lon="6.77134">
        <ele>1056.6700000185</ele>
        <time>2021-07-03T10:50:41.910Z</time>
      </trkpt>
      <trkpt lat="47.0758" lon="6.7713">
        <ele>1056.79</ele>
        <time>2021-07-03T10:50:45.567Z</time>
      </trkpt>
      <trkpt lat="47.0758" lon="6.77127">
        <ele>1056.8999999988</ele>
        <time>2021-07-03T10:50:48.437Z</time>
      </trkpt>
      <trkpt lat="47.07579" lon="6.77122">
        <ele>1057.01</ele>
        <time>2021-07-03T10:50:52.317Z</time>
      </trkpt>
      <trkpt lat="47.07577" lon="6.77118">
        <ele>1057.09</ele>
        <time>2021-07-03T10:50:55.695Z</time>
      </trkpt>
      <trkpt lat="47.07575" lon="6.77114">
        <ele>1057.1600000005</ele>
        <time>2021-07-03T10:50:58.960Z</time>
      </trkpt>
      <trkpt lat="47.07573" lon="6.77111">
        <ele>1057.239999992</ele>
        <time>2021-07-03T10:51:01.970Z</time>
      </trkpt>
      <trkpt lat="47.0757" lon="6.77108">
        <ele>1057.3599999993</ele>
        <time>2021-07-03T10:51:06.046Z</time>
      </trkpt>
      <trkpt lat="47.07565" lon="6.77104">
        <ele>1057.5999999892</ele>
        <time>2021-07-03T10:51:13.308Z</time>
      </trkpt>
      <trkpt lat="47.07558" lon="6.77101">
        <ele>1057.9999999916</ele>
        <time>2021-07-03T10:51:23.618Z</time>
      </trkpt>
      <trkpt lat="47.07555" lon="6.77099">
        <ele>1057.8900000008</ele>
        <time>2021-07-03T10:51:24.399Z</time>
      </trkpt>
      <trkpt lat="47.07551" lon="6.77094">
        <ele>1058.08999999</ele>
        <time>2021-07-03T10:51:30.714Z</time>
      </trkpt>
      <trkpt lat="47.07547" lon="6.77087">
        <ele>1058.0600000017</ele>
        <time>2021-07-03T10:51:35.251Z</time>
      </trkpt>
      <trkpt lat="47.07544" lon="6.7708">
        <ele>1058.1</ele>
        <time>2021-07-03T10:51:39.968Z</time>
      </trkpt>
      <trkpt lat="47.07542" lon="6.77068">
        <ele>1058.3999999995</ele>
        <time>2021-07-03T10:51:49.749Z</time>
      </trkpt>
      <trkpt lat="47.07539" lon="6.77031">
        <ele>1058.7600000013</ele>
        <time>2021-07-03T10:52:12.584Z</time>
      </trkpt>
      <trkpt lat="47.07536" lon="6.77009">
        <ele>1059.19</ele>
        <time>2021-07-03T10:52:28.702Z</time>
      </trkpt>
      <trkpt lat="47.07532" lon="6.76994">
        <ele>1059.470000002</ele>
        <time>2021-07-03T10:52:39.911Z</time>
      </trkpt>
      <trkpt lat="47.07528" lon="6.7698">
        <ele>1059.6299999952</ele>
        <time>2021-07-03T10:52:49.343Z</time>
      </trkpt>
      <trkpt lat="47.07523" lon="6.76966">
        <ele>1059.9299999965</ele>
        <time>2021-07-03T10:53:00.661Z</time>
      </trkpt>
      <trkpt lat="47.07509" lon="6.76936">
        <ele>1060.2599999984</ele>
        <time>2021-07-03T10:53:22.747Z</time>
      </trkpt>
      <trkpt lat="47.07504" lon="6.76927">
        <ele>1060.0500000035</ele>
        <time>2021-07-03T10:53:24.761Z</time>
      </trkpt>
      <trkpt lat="47.07503" lon="6.76924">
        <ele>1060.0699999982</ele>
        <time>2021-07-03T10:53:26.698Z</time>
      </trkpt>
      <trkpt lat="47.07498" lon="6.76918">
        <ele>1060.1799999902</ele>
        <time>2021-07-03T10:53:32.688Z</time>
      </trkpt>
      <trkpt lat="47.07493" lon="6.76914">
        <ele>1060.03</ele>
        <time>2021-07-03T10:53:34.142Z</time>
      </trkpt>
      <trkpt lat="47.07487" lon="6.7691">
        <ele>1060.0999999999</ele>
        <time>2021-07-03T10:53:39.857Z</time>
      </trkpt>
      <trkpt lat="47.07467" lon="6.76904">
        <ele>1061.2400000213</ele>
        <time>2021-07-03T10:54:08.915Z</time>
      </trkpt>
      <trkpt lat="47.07463" lon="6.76902">
        <ele>1061.64</ele>
        <time>2021-07-03T10:54:17.092Z</time>
      </trkpt>
      <trkpt lat="47.07456" lon="6.76898">
        <ele>1062.020000024</ele>
        <time>2021-07-03T10:54:27.415Z</time>
      </trkpt>
      <trkpt lat="47.07451" lon="6.76893">
        <ele>1062.3300000283</ele>
        <time>2021-07-03T10:54:35.765Z</time>
      </trkpt>
      <trkpt lat="47.07448" lon="6.7689">
        <ele>1062.54</ele>
        <time>2021-07-03T10:54:41.003Z</time>
      </trkpt>
      <trkpt lat="47.07445" lon="6.76885">
        <ele>1062.7199999971</ele>
        <time>2021-07-03T10:54:46.584Z</time>
      </trkpt>
      <trkpt lat="47.07442" lon="6.7688">
        <ele>1062.8500000101</ele>
        <time>2021-07-03T10:54:51.401Z</time>
      </trkpt>
      <trkpt lat="47.07439" lon="6.76876">
        <ele>1062.9699999936</ele>
        <time>2021-07-03T10:54:55.754Z</time>
      </trkpt>
      <trkpt lat="47.07437" lon="6.76868">
        <ele>1063.2</ele>
        <time>2021-07-03T10:55:02.887Z</time>
      </trkpt>
      <trkpt lat="47.07426" lon="6.76827">
        <ele>1063.7499999983</ele>
        <time>2021-07-03T10:55:31.123Z</time>
      </trkpt>
      <trkpt lat="47.07423" lon="6.76814">
        <ele>1063.6600000005</ele>
        <time>2021-07-03T10:55:34.042Z</time>
      </trkpt>
      <trkpt lat="47.0742" lon="6.76808">
        <ele>1063.68</ele>
        <time>2021-07-03T10:55:38.160Z</time>
      </trkpt>
      <trkpt lat="47.07419" lon="6.76804">
        <ele>1063.68</ele>
        <time>2021-07-03T10:55:40.432Z</time>
      </trkpt>
      <trkpt lat="47.07415" lon="6.76798">
        <ele>1063.72</ele>
        <time>2021-07-03T10:55:45.215Z</time>
      </trkpt>
      <trkpt lat="47.07413" lon="6.76795">
        <ele>1063.7299999994</ele>
        <time>2021-07-03T10:55:47.527Z</time>
      </trkpt>
      <trkpt lat="47.0741" lon="6.76791">
        <ele>1063.77</ele>
        <time>2021-07-03T10:55:51.015Z</time>
      </trkpt>
      <trkpt lat="47.07405" lon="6.76786">
        <ele>1063.869999994</ele>
        <time>2021-07-03T10:55:56.597Z</time>
      </trkpt>
      <trkpt lat="47.07398" lon="6.76781">
        <ele>1064.26</ele>
        <time>2021-07-03T10:56:07.260Z</time>
      </trkpt>
      <trkpt lat="47.07396" lon="6.76777">
        <ele>1064.48</ele>
        <time>2021-07-03T10:56:12.394Z</time>
      </trkpt>
      <trkpt lat="47.07393" lon="6.76774">
        <ele>1064.66</ele>
        <time>2021-07-03T10:56:17.350Z</time>
      </trkpt>
      <trkpt lat="47.07391" lon="6.7677">
        <ele>1064.7999999908</ele>
        <time>2021-07-03T10:56:21.614Z</time>
      </trkpt>
      <trkpt lat="47.07389" lon="6.76766">
        <ele>1064.88</ele>
        <time>2021-07-03T10:56:24.992Z</time>
      </trkpt>
      <trkpt lat="47.07387" lon="6.76758">
        <ele>1064.9799999949</ele>
        <time>2021-07-03T10:56:30.388Z</time>
      </trkpt>
      <trkpt lat="47.07383" lon="6.76745">
        <ele>1065.19</ele>
        <time>2021-07-03T10:56:39.872Z</time>
      </trkpt>
      <trkpt lat="47.07378" lon="6.76729">
        <ele>1065.49</ele>
        <time>2021-07-03T10:56:52.049Z</time>
      </trkpt>
      <trkpt lat="47.07371" lon="6.76711">
        <ele>1065.9900000013</ele>
        <time>2021-07-03T10:57:08.409Z</time>
      </trkpt>
      <trkpt lat="47.07366" lon="6.76702">
        <ele>1066.5400000206</ele>
        <time>2021-07-03T10:57:20.827Z</time>
      </trkpt>
      <trkpt lat="47.07361" lon="6.76694">
        <ele>1067.4000000044</ele>
        <time>2021-07-03T10:57:38.725Z</time>
      </trkpt>
      <trkpt lat="47.07358" lon="6.76688">
        <ele>1067.6899999892</ele>
        <time>2021-07-03T10:57:46.008Z</time>
      </trkpt>
      <trkpt lat="47.07354" lon="6.76682">
        <ele>1068.16</ele>
        <time>2021-07-03T10:57:55.929Z</time>
      </trkpt>
      <trkpt lat="47.07347" lon="6.76675">
        <ele>1068.5700000098</ele>
        <time>2021-07-03T10:58:07.403Z</time>
      </trkpt>
      <trkpt lat="47.07341" lon="6.76667">
        <ele>1068.8699999927</ele>
        <time>2021-07-03T10:58:17.004Z</time>
      </trkpt>
      <trkpt lat="47.07335" lon="6.76659">
        <ele>1069.36</ele>
        <time>2021-07-03T10:58:28.915Z</time>
      </trkpt>
      <trkpt lat="47.07329" lon="6.76648">
        <ele>1070.1100000363</ele>
        <time>2021-07-03T10:58:45.025Z</time>
      </trkpt>
      <trkpt lat="47.07325" lon="6.7664">
        <ele>1070.55</ele>
        <time>2021-07-03T10:58:55.293Z</time>
      </trkpt>
      <trkpt lat="47.07326" lon="6.7664">
        <ele>1070.55</ele>
        <time>2021-07-03T10:58:56.076Z</time>
      </trkpt>
      <trkpt lat="47.07326" lon="6.7664">
        <ele>1070.55</ele>
        <time>2021-07-03T10:58:56.076Z</time>
      </trkpt>
      <trkpt lat="47.07325" lon="6.7664">
        <ele>1070.55</ele>
        <time>2021-07-03T10:58:56.859Z</time>
      </trkpt>
      <trkpt lat="47.07322" lon="6.76633">
        <ele>1070.9999999798</ele>
        <time>2021-07-03T10:59:06.448Z</time>
      </trkpt>
      <trkpt lat="47.07316" lon="6.76621">
        <ele>1071.49</ele>
        <time>2021-07-03T10:59:20.177Z</time>
      </trkpt>
      <trkpt lat="47.07314" lon="6.76614">
        <ele>1071.7099999846</ele>
        <time>2021-07-03T10:59:26.811Z</time>
      </trkpt>
      <trkpt lat="47.07308" lon="6.76595">
        <ele>1072.4600000146</ele>
        <time>2021-07-03T10:59:46.673Z</time>
      </trkpt>
      <trkpt lat="47.07304" lon="6.76576">
        <ele>1073.3499999772</ele>
        <time>2021-07-03T11:00:07.342Z</time>
      </trkpt>
      <trkpt lat="47.07298" lon="6.76546">
        <ele>1074.4600000146</ele>
        <time>2021-07-03T11:00:36.905Z</time>
      </trkpt>
      <trkpt lat="47.07295" lon="6.76529">
        <ele>1074.8499999977</ele>
        <time>2021-07-03T11:00:50.257Z</time>
      </trkpt>
      <trkpt lat="47.07292" lon="6.76504">
        <ele>1074.99</ele>
        <time>2021-07-03T11:01:04.877Z</time>
      </trkpt>
      <trkpt lat="47.07291" lon="6.76498">
        <ele>1075.1699999991</ele>
        <time>2021-07-03T11:01:10.294Z</time>
      </trkpt>
      <trkpt lat="47.07289" lon="6.76491">
        <ele>1075.43</ele>
        <time>2021-07-03T11:01:17.385Z</time>
      </trkpt>
      <trkpt lat="47.07287" lon="6.76485">
        <ele>1075.85</ele>
        <time>2021-07-03T11:01:26.002Z</time>
      </trkpt>
      <trkpt lat="47.07282" lon="6.76475">
        <ele>1076.6299999823</ele>
        <time>2021-07-03T11:01:42.006Z</time>
      </trkpt>
      <trkpt lat="47.07277" lon="6.76463">
        <ele>1077.3000000123</ele>
        <time>2021-07-03T11:01:57.092Z</time>
      </trkpt>
      <trkpt lat="47.07274" lon="6.76454">
        <ele>1077.5699999848</ele>
        <time>2021-07-03T11:02:05.472Z</time>
      </trkpt>
      <trkpt lat="47.0727" lon="6.76445">
        <ele>1077.65</ele>
        <time>2021-07-03T11:02:11.840Z</time>
      </trkpt>
      <trkpt lat="47.07253" lon="6.76393">
        <ele>1078.52</ele>
        <time>2021-07-03T11:02:50.422Z</time>
      </trkpt>
      <trkpt lat="47.07246" lon="6.76368">
        <ele>1079.000000004</ele>
        <time>2021-07-03T11:03:09.358Z</time>
      </trkpt>
      <trkpt lat="47.07238" lon="6.76347">
        <ele>1079.52</ele>
        <time>2021-07-03T11:03:27.445Z</time>
      </trkpt>
      <trkpt lat="47.07234" lon="6.76331">
        <ele>1080.33</ele>
        <time>2021-07-03T11:03:45.702Z</time>
      </trkpt>
      <trkpt lat="47.07231" lon="6.76317">
        <ele>1080.2200000008</ele>
        <time>2021-07-03T11:03:48.767Z</time>
      </trkpt>
      <trkpt lat="47.07228" lon="6.76302">
        <ele>1080.56</ele>
        <time>2021-07-03T11:04:00.549Z</time>
      </trkpt>
      <trkpt lat="47.07225" lon="6.76289">
        <ele>1080.63</ele>
        <time>2021-07-03T11:04:08.407Z</time>
      </trkpt>
      <trkpt lat="47.07218" lon="6.76265">
        <ele>1080.67</ele>
        <time>2021-07-03T11:04:22.621Z</time>
      </trkpt>
      <trkpt lat="47.07203" lon="6.76226">
        <ele>1081.2799999984</ele>
        <time>2021-07-03T11:04:51.859Z</time>
      </trkpt>
      <trkpt lat="47.07176" lon="6.76166">
        <ele>1082.01</ele>
        <time>2021-07-03T11:05:36.268Z</time>
      </trkpt>
      <trkpt lat="47.0717" lon="6.76152">
        <ele>1082.15</ele>
        <time>2021-07-03T11:05:46.221Z</time>
      </trkpt>
      <trkpt lat="47.07158" lon="6.76118">
        <ele>1082.55</ele>
        <time>2021-07-03T11:06:09.977Z</time>
      </trkpt>
      <trkpt lat="47.07152" lon="6.761">
        <ele>1082.73</ele>
        <time>2021-07-03T11:06:22.131Z</time>
      </trkpt>
      <trkpt lat="47.07144" lon="6.76068">
        <ele>1082.57</ele>
        <time>2021-07-03T11:06:38.572Z</time>
      </trkpt>
      <trkpt lat="47.07139" lon="6.7605">
        <ele>1082.7</ele>
        <time>2021-07-03T11:06:49.962Z</time>
      </trkpt>
      <trkpt lat="47.07135" lon="6.76041">
        <ele>1082.8299999967</ele>
        <time>2021-07-03T11:06:56.806Z</time>
      </trkpt>
      <trkpt lat="47.07132" lon="6.76034">
        <ele>1082.7300000008</ele>
        <time>2021-07-03T11:06:58.392Z</time>
      </trkpt>
      <trkpt lat="47.07124" lon="6.76021">
        <ele>1082.6199999987</ele>
        <time>2021-07-03T11:07:02.139Z</time>
      </trkpt>
      <trkpt lat="47.07121" lon="6.76013">
        <ele>1082.5500000039</ele>
        <time>2021-07-03T11:07:04.040Z</time>
      </trkpt>
      <trkpt lat="47.07116" lon="6.76002">
        <ele>1082.4999999967</ele>
        <time>2021-07-03T11:07:10.539Z</time>
      </trkpt>
      <trkpt lat="47.07114" lon="6.75996">
        <ele>1082.460000003</ele>
        <time>2021-07-03T11:07:11.975Z</time>
      </trkpt>
      <trkpt lat="47.0711" lon="6.75986">
        <ele>1082.36</ele>
        <time>2021-07-03T11:07:14.345Z</time>
      </trkpt>
      <trkpt lat="47.07101" lon="6.75959">
        <ele>1081.86</ele>
        <time>2021-07-03T11:07:19.683Z</time>
      </trkpt>
      <trkpt lat="47.07096" lon="6.75943">
        <ele>1081.61</ele>
        <time>2021-07-03T11:07:22.939Z</time>
      </trkpt>
      <trkpt lat="47.07094" lon="6.75937">
        <ele>1081.4700000088</ele>
        <time>2021-07-03T11:07:24.047Z</time>
      </trkpt>
      <trkpt lat="47.07091" lon="6.7593">
        <ele>1081.4300000014</ele>
        <time>2021-07-03T11:07:28.024Z</time>
      </trkpt>
      <trkpt lat="47.07085" lon="6.75915">
        <ele>1081.31</ele>
        <time>2021-07-03T11:07:31.699Z</time>
      </trkpt>
      <trkpt lat="47.07085" lon="6.75916">
        <ele>1081.31</ele>
        <time>2021-07-03T11:07:32.232Z</time>
      </trkpt>
      <trkpt lat="47.07085" lon="6.75916">
        <ele>1081.31</ele>
        <time>2021-07-03T11:07:32.232Z</time>
      </trkpt>
      <trkpt lat="47.07085" lon="6.75915">
        <ele>1081.31</ele>
        <time>2021-07-03T11:07:32.765Z</time>
      </trkpt>
      <trkpt lat="47.07077" lon="6.75898">
        <ele>1081.189999995</ele>
        <time>2021-07-03T11:07:37.225Z</time>
      </trkpt>
      <trkpt lat="47.07073" lon="6.75885">
        <ele>1080.95</ele>
        <time>2021-07-03T11:07:39.750Z</time>
      </trkpt>
      <trkpt lat="47.0707" lon="6.75872">
        <ele>1081.0699999807</ele>
        <time>2021-07-03T11:07:48.045Z</time>
      </trkpt>
      <trkpt lat="47.07069" lon="6.75862">
        <ele>1080.72</ele>
        <time>2021-07-03T11:07:49.431Z</time>
      </trkpt>
      <trkpt lat="47.07068" lon="6.75855">
        <ele>1080.37</ele>
        <time>2021-07-03T11:07:50.373Z</time>
      </trkpt>
      <trkpt lat="47.07068" lon="6.75846">
        <ele>1080.049999978</ele>
        <time>2021-07-03T11:07:51.594Z</time>
      </trkpt>
      <trkpt lat="47.07068" lon="6.75837">
        <ele>1079.6900000043</ele>
        <time>2021-07-03T11:07:52.750Z</time>
      </trkpt>
      <trkpt lat="47.07069" lon="6.75825">
        <ele>1079.22</ele>
        <time>2021-07-03T11:07:54.323Z</time>
      </trkpt>
      <trkpt lat="47.07072" lon="6.75794">
        <ele>1077.99</ele>
        <time>2021-07-03T11:07:58.380Z</time>
      </trkpt>
      <trkpt lat="47.07074" lon="6.75779">
        <ele>1077.38</ele>
        <time>2021-07-03T11:08:00.345Z</time>
      </trkpt>
      <trkpt lat="47.07075" lon="6.75771">
        <ele>1076.86</ele>
        <time>2021-07-03T11:08:01.417Z</time>
      </trkpt>
      <trkpt lat="47.07076" lon="6.75765">
        <ele>1076.2699999859</ele>
        <time>2021-07-03T11:08:02.231Z</time>
      </trkpt>
      <trkpt lat="47.07078" lon="6.7576">
        <ele>1075.8</ele>
        <time>2021-07-03T11:08:02.995Z</time>
      </trkpt>
      <trkpt lat="47.0708" lon="6.75756">
        <ele>1075.3</ele>
        <time>2021-07-03T11:08:03.649Z</time>
      </trkpt>
      <trkpt lat="47.07084" lon="6.75748">
        <ele>1074.5599999906</ele>
        <time>2021-07-03T11:08:04.957Z</time>
      </trkpt>
      <trkpt lat="47.07086" lon="6.75743">
        <ele>1074.2199999998</ele>
        <time>2021-07-03T11:08:05.721Z</time>
      </trkpt>
      <trkpt lat="47.07087" lon="6.7574">
        <ele>1074.0500000262</ele>
        <time>2021-07-03T11:08:06.161Z</time>
      </trkpt>
      <trkpt lat="47.07088" lon="6.75736">
        <ele>1073.89</ele>
        <time>2021-07-03T11:08:06.724Z</time>
      </trkpt>
      <trkpt lat="47.07088" lon="6.75733">
        <ele>1073.79</ele>
        <time>2021-07-03T11:08:07.143Z</time>
      </trkpt>
      <trkpt lat="47.07087" lon="6.75729">
        <ele>1073.6799999955</ele>
        <time>2021-07-03T11:08:07.801Z</time>
      </trkpt>
      <trkpt lat="47.07086" lon="6.75726">
        <ele>1073.61</ele>
        <time>2021-07-03T11:08:08.354Z</time>
      </trkpt>
      <trkpt lat="47.07083" lon="6.7572">
        <ele>1073.46</ele>
        <time>2021-07-03T11:08:09.604Z</time>
      </trkpt>
      <trkpt lat="47.07079" lon="6.75715">
        <ele>1073.49</ele>
        <time>2021-07-03T11:08:13.944Z</time>
      </trkpt>
      <trkpt lat="47.0707" lon="6.75706">
        <ele>1073.680000007</ele>
        <time>2021-07-03T11:08:24.091Z</time>
      </trkpt>
      <trkpt lat="47.07067" lon="6.75703">
        <ele>1073.8</ele>
        <time>2021-07-03T11:08:28.167Z</time>
      </trkpt>
      <trkpt lat="47.07065" lon="6.75699">
        <ele>1073.9500000114</ele>
        <time>2021-07-03T11:08:32.626Z</time>
      </trkpt>
      <trkpt lat="47.07064" lon="6.75695">
        <ele>1074.07</ele>
        <time>2021-07-03T11:08:36.283Z</time>
      </trkpt>
      <trkpt lat="47.07063" lon="6.7569">
        <ele>1074.2999999917</ele>
        <time>2021-07-03T11:08:41.664Z</time>
      </trkpt>
      <trkpt lat="47.07062" lon="6.75684">
        <ele>1074.54</ele>
        <time>2021-07-03T11:08:47.702Z</time>
      </trkpt>
      <trkpt lat="47.07061" lon="6.75668">
        <ele>1075.51</ele>
        <time>2021-07-03T11:09:07.761Z</time>
      </trkpt>
      <trkpt lat="47.07059" lon="6.75646">
        <ele>1076.859999977</ele>
        <time>2021-07-03T11:09:35.633Z</time>
      </trkpt>
      <trkpt lat="47.07079" lon="6.75644">
        <ele>1078.86</ele>
        <time>2021-07-03T11:10:16.355Z</time>
      </trkpt>
      <trkpt lat="47.07086" lon="6.75644">
        <ele>1079.43</ele>
        <time>2021-07-03T11:10:28.423Z</time>
      </trkpt>
      <trkpt lat="47.07087" lon="6.75645">
        <ele>1079.53</ele>
        <time>2021-07-03T11:10:30.530Z</time>
      </trkpt>
      <trkpt lat="47.07088" lon="6.75646">
        <ele>1079.53</ele>
        <time>2021-07-03T11:10:31.477Z</time>
      </trkpt>
    </trkseg>
  </trk>
</gpx>